| time (UTC) | temp C | wind direction | speed KPH | gust KPH | rain 1hr cm | rain 24hr cm | rain mn cm | humidity % | barometer mb |
| 20260507205321 | 7 | 184 | 0.0 | 3.2 | 0.00 | 0.05 | 0.05 | 93 | 1015.0 |
| 20260507205221 | 7 | 184 | 0.0 | 3.2 | 0.00 | 0.05 | 0.05 | 93 | 1015.0 |
| 20260507205122 | 7 | 184 | 0.0 | 0.0 | 0.00 | 0.05 | 0.05 | 93 | 1015.0 |
| 20260507205038 | 7 | 184 | 0.0 | 0.0 | 0.00 | 0.05 | 0.05 | 93 | 1015.1 |
| 20260507204820 | 8 | 184 | 0.0 | 0.0 | 0.00 | 0.05 | 0.05 | 93 | 1015.1 |
| 20260507204723 | 8 | 184 | 0.0 | 0.0 | 0.00 | 0.05 | 0.05 | 93 | 1015.1 |
| 20260507204619 | 7 | 184 | 0.0 | 0.0 | 0.00 | 0.05 | 0.05 | 93 | 1014.9 |
| 20260507204530 | 8 | 184 | 0.0 | 3.2 | 0.00 | 0.05 | 0.05 | 93 | 1015.1 |
| 20260507204420 | 7 | 184 | 0.0 | 3.2 | 0.00 | 0.05 | 0.05 | 93 | 1015.2 |
| 20260507204321 | 7 | 184 | 0.0 | 3.2 | 0.00 | 0.05 | 0.05 | 93 | 1015.2 |
| 20260507204220 | 7 | 184 | 0.0 | 3.2 | 0.00 | 0.05 | 0.05 | 93 | 1015.1 |
| 20260507204122 | 8 | 184 | 0.0 | 3.2 | 0.00 | 0.05 | 0.05 | 93 | 1015.0 |
| 20260507204038 | 8 | 184 | 0.0 | 3.2 | 0.00 | 0.05 | 0.05 | 93 | 1015.0 |
| 20260507203919 | 8 | 184 | 0.0 | 3.2 | 0.00 | 0.05 | 0.05 | 93 | 1015.1 |
| 20260507203820 | 8 | 184 | 0.0 | 3.2 | 0.00 | 0.05 | 0.05 | 93 | 1015.0 |
| 20260507203723 | 8 | 184 | 0.0 | 3.2 | 0.00 | 0.05 | 0.05 | 93 | 1015.0 |
| 20260507203620 | 8 | 184 | 0.0 | 3.2 | 0.00 | 0.05 | 0.05 | 93 | 1015.0 |
| 20260507203528 | 8 | 184 | 0.0 | 3.2 | 0.00 | 0.05 | 0.05 | 93 | 1015.0 |
| 20260507203427 | 8 | 184 | 0.0 | 3.2 | 0.00 | 0.05 | 0.05 | 93 | 1015.0 |
| 20260507203325 | 8 | 184 | 0.0 | 1.6 | 0.00 | 0.05 | 0.05 | 93 | 1015.0 |
| 20260507203221 | 8 | 184 | 0.0 | 1.6 | 0.00 | 0.05 | 0.05 | 93 | 1015.1 |
| 20260507203123 | 8 | 184 | 0.0 | 1.6 | 0.00 | 0.05 | 0.05 | 93 | 1015.0 |
| 20260507203038 | 8 | 184 | 0.0 | 1.6 | 0.00 | 0.05 | 0.05 | 93 | 1015.0 |
| 20260507202920 | 8 | 184 | 0.0 | 1.6 | 0.00 | 0.05 | 0.05 | 93 | 1015.0 |
| 20260507202821 | 8 | 184 | 0.0 | 1.6 | 0.00 | 0.05 | 0.05 | 93 | 1015.0 |
| 20260507202723 | 8 | 184 | 0.0 | 1.6 | 0.00 | 0.05 | 0.05 | 93 | 1015.0 |
| 20260507202620 | 8 | 184 | 0.0 | 1.6 | 0.00 | 0.05 | 0.05 | 93 | 1015.0 |
| 20260507202529 | 8 | 184 | 0.0 | 1.6 | 0.00 | 0.05 | 0.05 | 92 | 1014.9 |
| 20260507202420 | 8 | 184 | 0.0 | 1.6 | 0.00 | 0.05 | 0.05 | 93 | 1015.0 |
| 20260507202321 | 8 | 184 | 0.0 | 0.0 | 0.00 | 0.05 | 0.05 | 93 | 1014.8 |
| 20260507202122 | 8 | 184 | 0.0 | 1.6 | 0.00 | 0.05 | 0.05 | 93 | 1015.0 |
| 20260507202039 | 8 | 184 | 0.0 | 3.2 | 0.00 | 0.05 | 0.05 | 93 | 1014.8 |
| 20260507201920 | 8 | 184 | 0.0 | 3.2 | 0.00 | 0.05 | 0.05 | 93 | 1014.7 |
| 20260507201621 | 8 | 184 | 0.0 | 3.2 | 0.00 | 0.05 | 0.05 | 93 | 1014.8 |
| 20260507201532 | 8 | 184 | 0.0 | 3.2 | 0.00 | 0.05 | 0.05 | 93 | 1014.8 |
| 20260507201421 | 8 | 184 | 0.0 | 3.2 | 0.00 | 0.05 | 0.05 | 93 | 1014.8 |
| 20260507201322 | 8 | 184 | 0.0 | 3.2 | 0.00 | 0.05 | 0.05 | 92 | 1014.7 |
| 20260507201220 | 8 | 184 | 0.0 | 3.2 | 0.00 | 0.05 | 0.05 | 92 | 1014.8 |
| 20260507201123 | 8 | 184 | 0.0 | 3.2 | 0.00 | 0.05 | 0.05 | 92 | 1014.8 |
| 20260507201039 | 8 | 184 | 0.0 | 3.2 | 0.00 | 0.05 | 0.05 | 92 | 1014.7 |
| 20260507200921 | 8 | 184 | 0.0 | 1.6 | 0.00 | 0.05 | 0.05 | 92 | 1014.6 |
| 20260507200820 | 8 | 184 | 0.0 | 1.6 | 0.00 | 0.05 | 0.05 | 92 | 1014.6 |
| 20260507200531 | 8 | 184 | 0.0 | 3.2 | 0.00 | 0.05 | 0.05 | 92 | 1014.7 |
| 20260507200321 | 8 | 184 | 0.0 | 3.2 | 0.00 | 0.05 | 0.05 | 92 | 1014.6 |
| 20260507200220 | 8 | 184 | 0.0 | 3.2 | 0.00 | 0.05 | 0.05 | 92 | 1014.6 |
| 20260507200127 | 8 | 184 | 0.0 | 3.2 | 0.00 | 0.05 | 0.05 | 92 | 1014.7 |
| 20260507200041 | 9 | 184 | 0.0 | 3.2 | 0.00 | 0.05 | 0.05 | 92 | 1014.7 |
| 20260507195920 | 9 | 184 | 0.0 | 3.2 | 0.00 | 0.05 | 0.05 | 92 | 1014.7 |
| 20260507195823 | 9 | 184 | 0.0 | 3.2 | 0.00 | 0.05 | 0.05 | 92 | 1014.6 |
| 20260507195721 | 9 | 184 | 0.0 | 3.2 | 0.00 | 0.05 | 0.05 | 92 | 1014.6 |
| 20260507195619 | 9 | 184 | 0.0 | 1.6 | 0.00 | 0.05 | 0.05 | 92 | 1014.7 |
| 20260507195528 | 9 | 184 | 0.0 | 1.6 | 0.00 | 0.05 | 0.05 | 92 | 1014.6 |
| 20260507195423 | 9 | 184 | 0.0 | 1.6 | 0.00 | 0.05 | 0.05 | 92 | 1014.6 |
| 20260507195322 | 9 | 184 | 0.0 | 1.6 | 0.00 | 0.05 | 0.05 | 92 | 1014.5 |
| 20260507195220 | 9 | 184 | 0.0 | 1.6 | 0.00 | 0.05 | 0.05 | 92 | 1014.6 |
| 20260507195120 | 9 | 184 | 0.0 | 1.6 | 0.00 | 0.05 | 0.05 | 92 | 1014.5 |
| 20260507195039 | 9 | 184 | 0.0 | 1.6 | 0.00 | 0.05 | 0.05 | 92 | 1014.5 |
| 20260507194923 | 9 | 184 | 0.0 | 1.6 | 0.00 | 0.05 | 0.05 | 92 | 1014.6 |
| 20260507194820 | 9 | 184 | 0.0 | 1.6 | 0.00 | 0.05 | 0.05 | 92 | 1014.5 |
| 20260507194620 | 9 | 184 | 0.0 | 1.6 | 0.00 | 0.05 | 0.05 | 92 | 1014.4 |
| 20260507194535 | 9 | 184 | 0.0 | 1.6 | 0.00 | 0.05 | 0.05 | 92 | 1014.4 |
| 20260507194422 | 9 | 184 | 0.0 | 1.6 | 0.00 | 0.05 | 0.05 | 92 | 1014.5 |
| 20260507194321 | 9 | 184 | 0.0 | 1.6 | 0.00 | 0.05 | 0.05 | 92 | 1014.4 |
| 20260507194220 | 9 | 184 | 0.0 | 1.6 | 0.00 | 0.05 | 0.05 | 92 | 1014.5 |
| 20260507194125 | 9 | 184 | 0.0 | 1.6 | 0.00 | 0.05 | 0.05 | 92 | 1014.5 |
| 20260507194041 | 9 | 184 | 0.0 | 1.6 | 0.00 | 0.05 | 0.05 | 91 | 1014.4 |
| 20260507193919 | 9 | 184 | 0.0 | 1.6 | 0.00 | 0.05 | 0.05 | 91 | 1014.4 |
| 20260507193823 | 9 | 184 | 0.0 | 1.6 | 0.00 | 0.05 | 0.05 | 91 | 1014.4 |
| 20260507193720 | 10 | 184 | 0.0 | 1.6 | 0.00 | 0.05 | 0.05 | 91 | 1014.5 |
| 20260507193620 | 10 | 184 | 0.0 | 1.6 | 0.00 | 0.05 | 0.05 | 91 | 1014.4 |
| 20260507193528 | 10 | 184 | 0.0 | 1.6 | 0.00 | 0.05 | 0.05 | 91 | 1014.4 |
| 20260507193321 | 10 | 184 | 0.0 | 1.6 | 0.00 | 0.05 | 0.05 | 91 | 1014.3 |
| 20260507193220 | 10 | 184 | 0.0 | 0.0 | 0.00 | 0.05 | 0.05 | 91 | 1014.4 |
| 20260507193123 | 10 | 184 | 0.0 | 0.0 | 0.00 | 0.05 | 0.05 | 91 | 1014.3 |
| 20260507193041 | 10 | 184 | 0.0 | 0.0 | 0.00 | 0.05 | 0.05 | 91 | 1014.3 |
| 20260507192920 | 10 | 184 | 0.0 | 3.2 | 0.00 | 0.05 | 0.05 | 91 | 1014.3 |
| 20260507192821 | 10 | 184 | 1.6 | 3.2 | 0.00 | 0.05 | 0.05 | 91 | 1014.3 |
| 20260507192719 | 10 | 184 | 1.6 | 4.8 | 0.00 | 0.05 | 0.05 | 91 | 1014.2 |
| 20260507192622 | 10 | 184 | 1.6 | 4.8 | 0.00 | 0.05 | 0.05 | 91 | 1014.3 |
| 20260507192420 | 10 | 184 | 1.6 | 4.8 | 0.00 | 0.05 | 0.05 | 91 | 1014.2 |
| 20260507192320 | 10 | 184 | 1.6 | 4.8 | 0.00 | 0.05 | 0.05 | 91 | 1014.1 |
| 20260507192120 | 10 | 184 | 1.6 | 4.8 | 0.00 | 0.05 | 0.05 | 91 | 1014.1 |
| 20260507192039 | 10 | 184 | 1.6 | 4.8 | 0.00 | 0.05 | 0.05 | 91 | 1014.0 |
| 20260507191919 | 10 | 184 | 1.6 | 4.8 | 0.00 | 0.05 | 0.05 | 90 | 1014.0 |
| 20260507191720 | 10 | 184 | 0.0 | 3.2 | 0.00 | 0.05 | 0.05 | 91 | 1014.0 |
| 20260507191621 | 10 | 184 | 0.0 | 3.2 | 0.00 | 0.05 | 0.05 | 91 | 1013.9 |
| 20260507191529 | 10 | 184 | 0.0 | 3.2 | 0.00 | 0.05 | 0.05 | 91 | 1013.9 |
| 20260507191320 | 11 | 184 | 0.0 | 1.6 | 0.00 | 0.05 | 0.05 | 91 | 1013.9 |
| 20260507191222 | 11 | 184 | 0.0 | 1.6 | 0.00 | 0.05 | 0.05 | 90 | 1013.9 |
| 20260507191038 | 11 | 184 | 0.0 | 1.6 | 0.00 | 0.05 | 0.05 | 90 | 1013.9 |
| 20260507190920 | 11 | 184 | 0.0 | 1.6 | 0.00 | 0.05 | 0.05 | 90 | 1014.0 |
| 20260507190720 | 11 | 184 | 0.0 | 1.6 | 0.00 | 0.05 | 0.05 | 90 | 1013.9 |
| 20260507190622 | 11 | 184 | 0.0 | 1.6 | 0.00 | 0.05 | 0.05 | 90 | 1013.9 |
| 20260507190529 | 11 | 184 | 0.0 | 1.6 | 0.00 | 0.05 | 0.05 | 90 | 1013.7 |
| 20260507190420 | 11 | 184 | 0.0 | 1.6 | 0.00 | 0.05 | 0.05 | 90 | 1013.8 |
| 20260507190320 | 11 | 184 | 0.0 | 1.6 | 0.00 | 0.05 | 0.05 | 90 | 1013.8 |
| 20260507190123 | 11 | 184 | 0.0 | 0.0 | 0.00 | 0.05 | 0.05 | 91 | 1013.8 |
| 20260507190043 | 11 | 184 | 0.0 | 0.0 | 0.00 | 0.05 | 0.05 | 90 | 1013.8 |
| 20260507185822 | 11 | 184 | 0.0 | 0.0 | 0.00 | 0.05 | 0.05 | 90 | 1013.7 |
| 20260507185722 | 11 | 184 | 0.0 | 1.6 | 0.00 | 0.05 | 0.05 | 90 | 1013.7 |
| 20260507185620 | 11 | 184 | 0.0 | 3.2 | 0.00 | 0.05 | 0.05 | 90 | 1013.7 |
| 20260507185530 | 11 | 184 | 0.0 | 3.2 | 0.00 | 0.05 | 0.05 | 90 | 1013.7 |
| 20260507185322 | 11 | 184 | 1.6 | 3.2 | 0.00 | 0.05 | 0.05 | 90 | 1013.7 |
| 20260507185223 | 11 | 184 | 1.6 | 3.2 | 0.00 | 0.05 | 0.05 | 90 | 1013.6 |
| 20260507185120 | 11 | 184 | 1.6 | 3.2 | 0.00 | 0.05 | 0.05 | 90 | 1013.6 |
| 20260507185038 | 11 | 184 | 1.6 | 3.2 | 0.00 | 0.05 | 0.05 | 90 | 1013.7 |
| 20260507184926 | 11 | 184 | 1.6 | 3.2 | 0.00 | 0.05 | 0.05 | 90 | 1013.6 |
| 20260507184722 | 11 | 184 | 1.6 | 3.2 | 0.00 | 0.05 | 0.05 | 90 | 1013.6 |
| 20260507184620 | 12 | 184 | 1.6 | 3.2 | 0.00 | 0.05 | 0.05 | 90 | 1013.5 |
| 20260507184420 | 12 | 184 | 1.6 | 3.2 | 0.00 | 0.05 | 0.05 | 90 | 1013.5 |
| 20260507184222 | 12 | 184 | 1.6 | 3.2 | 0.00 | 0.05 | 0.05 | 90 | 1013.5 |
| 20260507184037 | 12 | 184 | 1.6 | 3.2 | 0.00 | 0.05 | 0.05 | 90 | 1013.5 |
| 20260507183923 | 12 | 184 | 1.6 | 3.2 | 0.00 | 0.05 | 0.05 | 90 | 1013.5 |
| 20260507183820 | 12 | 184 | 1.6 | 3.2 | 0.00 | 0.05 | 0.05 | 89 | 1013.4 |
| 20260507183723 | 12 | 184 | 1.6 | 3.2 | 0.00 | 0.05 | 0.05 | 90 | 1013.3 |
| 20260507183620 | 12 | 184 | 1.6 | 3.2 | 0.00 | 0.05 | 0.05 | 89 | 1013.4 |
| 20260507183420 | 12 | 184 | 0.0 | 4.8 | 0.00 | 0.05 | 0.05 | 89 | 1013.4 |
| 20260507183323 | 12 | 184 | 0.0 | 4.8 | 0.00 | 0.05 | 0.05 | 89 | 1013.5 |
| 20260507183121 | 12 | 184 | 1.6 | 4.8 | 0.00 | 0.05 | 0.05 | 89 | 1013.4 |
| 20260507183036 | 12 | 184 | 1.6 | 4.8 | 0.00 | 0.05 | 0.05 | 89 | 1013.3 |
| 20260507182931 | 12 | 184 | 1.6 | 4.8 | 0.00 | 0.05 | 0.05 | 89 | 1013.4 |
| 20260507182721 | 12 | 184 | 1.6 | 4.8 | 0.00 | 0.05 | 0.05 | 89 | 1013.4 |
| 20260507182619 | 12 | 184 | 1.6 | 4.8 | 0.00 | 0.05 | 0.05 | 89 | 1013.3 |
| 20260507182529 | 12 | 184 | 1.6 | 4.8 | 0.00 | 0.05 | 0.05 | 89 | 1013.5 |
| 20260507182426 | 12 | 184 | 1.6 | 4.8 | 0.00 | 0.05 | 0.05 | 89 | 1013.4 |
| 20260507182322 | 12 | 184 | 1.6 | 4.8 | 0.00 | 0.05 | 0.05 | 88 | 1013.4 |
| 20260507182222 | 13 | 184 | 1.6 | 4.8 | 0.00 | 0.05 | 0.05 | 89 | 1013.4 |
| 20260507182121 | 13 | 184 | 1.6 | 4.8 | 0.00 | 0.05 | 0.05 | 89 | 1013.3 |
| 20260507181923 | 13 | 178 | 1.6 | 4.8 | 0.00 | 0.05 | 0.05 | 89 | 1013.3 |
| 20260507181820 | 13 | 178 | 0.0 | 4.8 | 0.00 | 0.05 | 0.05 | 89 | 1013.3 |
| 20260507181720 | 13 | 178 | 0.0 | 3.2 | 0.00 | 0.05 | 0.05 | 89 | 1013.3 |
| 20260507181627 | 13 | 178 | 0.0 | 3.2 | 0.00 | 0.05 | 0.05 | 89 | 1013.3 |
| 20260507181421 | 13 | 178 | 0.0 | 3.2 | 0.00 | 0.05 | 0.05 | 89 | 1013.4 |
| 20260507181322 | 13 | 178 | 0.0 | 3.2 | 0.00 | 0.05 | 0.05 | 89 | 1013.4 |
| 20260507181222 | 13 | 178 | 0.0 | 3.2 | 0.00 | 0.05 | 0.05 | 89 | 1013.3 |
| 20260507181120 | 13 | 178 | 0.0 | 3.2 | 0.00 | 0.05 | 0.05 | 89 | 1013.3 |
| 20260507181037 | 13 | 178 | 1.6 | 3.2 | 0.00 | 0.05 | 0.05 | 88 | 1013.3 |
| 20260507180924 | 13 | 178 | 1.6 | 4.8 | 0.00 | 0.05 | 0.05 | 88 | 1013.5 |
| 20260507180821 | 13 | 178 | 1.6 | 4.8 | 0.00 | 0.05 | 0.05 | 88 | 1013.4 |
| 20260507180722 | 13 | 178 | 1.6 | 4.8 | 0.00 | 0.05 | 0.05 | 88 | 1013.3 |
| 20260507180620 | 13 | 178 | 1.6 | 4.8 | 0.00 | 0.05 | 0.05 | 88 | 1013.3 |
| 20260507180529 | 13 | 178 | 1.6 | 4.8 | 0.00 | 0.05 | 0.05 | 88 | 1013.4 |
| 20260507180421 | 13 | 178 | 1.6 | 4.8 | 0.00 | 0.05 | 0.05 | 88 | 1013.4 |
| 20260507180322 | 13 | 178 | 3.2 | 4.8 | 0.00 | 0.05 | 0.05 | 88 | 1013.3 |
| 20260507180221 | 13 | 178 | 3.2 | 4.8 | 0.00 | 0.05 | 0.05 | 88 | 1013.3 |
| 20260507180040 | 13 | 178 | 3.2 | 4.8 | 0.00 | 0.05 | 0.05 | 88 | 1013.4 |
| 20260507175923 | 13 | 178 | 3.2 | 4.8 | 0.00 | 0.05 | 0.05 | 88 | 1013.3 |
| 20260507175820 | 13 | 178 | 1.6 | 4.8 | 0.00 | 0.05 | 0.05 | 88 | 1013.4 |
| 20260507175620 | 13 | 178 | 1.6 | 4.8 | 0.00 | 0.05 | 0.05 | 88 | 1013.3 |
| 20260507175529 | 14 | 178 | 1.6 | 4.8 | 0.00 | 0.05 | 0.05 | 88 | 1013.2 |
| 20260507175422 | 14 | 178 | 3.2 | 4.8 | 0.00 | 0.05 | 0.05 | 87 | 1013.2 |
| 20260507175321 | 14 | 177 | 3.2 | 4.8 | 0.00 | 0.05 | 0.05 | 87 | 1013.3 |
| 20260507175119 | 14 | 177 | 3.2 | 4.8 | 0.00 | 0.05 | 0.05 | 87 | 1013.3 |
| 20260507174819 | 14 | 177 | 3.2 | 4.8 | 0.00 | 0.05 | 0.05 | 87 | 1013.1 |
| 20260507174722 | 14 | 177 | 3.2 | 4.8 | 0.00 | 0.05 | 0.05 | 87 | 1013.3 |
| 20260507174620 | 15 | 177 | 3.2 | 4.8 | 0.00 | 0.05 | 0.05 | 87 | 1013.2 |
| 20260507174530 | 15 | 177 | 3.2 | 4.8 | 0.00 | 0.05 | 0.05 | 86 | 1013.2 |
| 20260507174422 | 15 | 166 | 3.2 | 6.4 | 0.00 | 0.05 | 0.05 | 86 | 1013.3 |
| 20260507174322 | 15 | 165 | 1.6 | 6.4 | 0.00 | 0.05 | 0.05 | 86 | 1013.2 |
| 20260507174120 | 15 | 165 | 1.6 | 4.8 | 0.00 | 0.05 | 0.05 | 85 | 1013.0 |
| 20260507174037 | 15 | 165 | 1.6 | 6.4 | 0.00 | 0.05 | 0.05 | 85 | 1013.1 |
| 20260507173922 | 15 | 165 | 1.6 | 3.2 | 0.00 | 0.05 | 0.05 | 85 | 1013.1 |
| 20260507173820 | 15 | 165 | 1.6 | 4.8 | 0.00 | 0.05 | 0.05 | 85 | 1013.1 |
| 20260507173723 | 15 | 165 | 1.6 | 4.8 | 0.00 | 0.05 | 0.05 | 85 | 1013.0 |
| 20260507173620 | 15 | 165 | 1.6 | 4.8 | 0.00 | 0.05 | 0.05 | 84 | 1013.0 |
| 20260507173419 | 15 | 165 | 1.6 | 4.8 | 0.00 | 0.05 | 0.05 | 84 | 1012.9 |
| 20260507173322 | 15 | 165 | 1.6 | 4.8 | 0.00 | 0.05 | 0.05 | 84 | 1012.8 |
| 20260507173221 | 15 | 165 | 1.6 | 4.8 | 0.00 | 0.05 | 0.05 | 83 | 1012.9 |
| 20260507173120 | 15 | 165 | 1.6 | 4.8 | 0.00 | 0.05 | 0.05 | 83 | 1012.9 |
| 20260507173037 | 15 | 165 | 1.6 | 4.8 | 0.00 | 0.05 | 0.05 | 84 | 1013.0 |
| 20260507172821 | 15 | 165 | 1.6 | 3.2 | 0.00 | 0.05 | 0.05 | 83 | 1012.8 |
| 20260507172721 | 15 | 165 | 1.6 | 3.2 | 0.00 | 0.05 | 0.05 | 83 | 1012.8 |
| 20260507172620 | 15 | 165 | 1.6 | 3.2 | 0.00 | 0.05 | 0.05 | 82 | 1012.8 |
| 20260507172529 | 15 | 165 | 1.6 | 3.2 | 0.00 | 0.05 | 0.05 | 82 | 1012.8 |
| 20260507172419 | 15 | 165 | 1.6 | 3.2 | 0.00 | 0.05 | 0.05 | 82 | 1012.8 |
| 20260507172321 | 15 | 165 | 1.6 | 3.2 | 0.00 | 0.05 | 0.05 | 82 | 1012.8 |
| 20260507172120 | 16 | 165 | 1.6 | 3.2 | 0.00 | 0.05 | 0.05 | 83 | 1012.9 |
| 20260507172039 | 16 | 165 | 1.6 | 3.2 | 0.00 | 0.05 | 0.05 | 82 | 1012.7 |
| 20260507171922 | 16 | 165 | 1.6 | 3.2 | 0.00 | 0.05 | 0.05 | 82 | 1012.8 |
| 20260507171819 | 16 | 165 | 1.6 | 3.2 | 0.00 | 0.05 | 0.05 | 82 | 1012.8 |
| 20260507171721 | 16 | 165 | 1.6 | 4.8 | 0.00 | 0.05 | 0.05 | 81 | 1012.8 |
| 20260507171619 | 16 | 165 | 1.6 | 4.8 | 0.00 | 0.05 | 0.05 | 80 | 1012.8 |
| 20260507171529 | 16 | 165 | 1.6 | 4.8 | 0.00 | 0.05 | 0.05 | 80 | 1012.7 |
| 20260507171419 | 16 | 165 | 1.6 | 4.8 | 0.00 | 0.05 | 0.05 | 81 | 1012.7 |
| 20260507171322 | 16 | 161 | 1.6 | 4.8 | 0.00 | 0.05 | 0.05 | 79 | 1012.8 |
| 20260507171221 | 16 | 161 | 1.6 | 4.8 | 0.00 | 0.05 | 0.05 | 79 | 1012.7 |
| 20260507171120 | 16 | 161 | 1.6 | 4.8 | 0.00 | 0.05 | 0.05 | 78 | 1012.9 |
| 20260507171036 | 16 | 161 | 1.6 | 4.8 | 0.00 | 0.05 | 0.05 | 78 | 1012.8 |
| 20260507170922 | 17 | 161 | 1.6 | 6.4 | 0.00 | 0.05 | 0.05 | 79 | 1012.7 |
| 20260507170822 | 17 | 67 | 1.6 | 4.8 | 0.00 | 0.05 | 0.05 | 79 | 1012.7 |
| 20260507170620 | 17 | 66 | 1.6 | 4.8 | 0.00 | 0.05 | 0.05 | 79 | 1012.8 |
| 20260507170529 | 17 | 66 | 1.6 | 4.8 | 0.00 | 0.05 | 0.05 | 77 | 1012.7 |
| 20260507170421 | 17 | 66 | 1.6 | 4.8 | 0.00 | 0.05 | 0.05 | 77 | 1012.8 |
| 20260507170320 | 17 | 66 | 0.0 | 4.8 | 0.00 | 0.05 | 0.05 | 78 | 1012.8 |
| 20260507170221 | 17 | 66 | 0.0 | 4.8 | 0.00 | 0.05 | 0.05 | 78 | 1012.8 |
| 20260507170129 | 17 | 247 | 0.0 | 3.2 | 0.00 | 0.05 | 0.05 | 77 | 1012.7 |
| 20260507165921 | 17 | 241 | 0.0 | 3.2 | 0.00 | 0.05 | 0.05 | 78 | 1012.8 |
| 20260507165820 | 17 | 241 | 0.0 | 3.2 | 0.00 | 0.05 | 0.05 | 75 | 1012.7 |
| 20260507165721 | 17 | 241 | 0.0 | 3.2 | 0.00 | 0.05 | 0.05 | 75 | 1012.6 |
| 20260507165623 | 17 | 241 | 0.0 | 3.2 | 0.00 | 0.05 | 0.05 | 79 | 1012.7 |
| 20260507165528 | 17 | 241 | 0.0 | 3.2 | 0.00 | 0.05 | 0.05 | 78 | 1012.7 |
| 20260507165420 | 17 | 241 | 0.0 | 3.2 | 0.00 | 0.05 | 0.05 | 79 | 1012.7 |
| 20260507165322 | 17 | 241 | 0.0 | 3.2 | 0.00 | 0.05 | 0.05 | 79 | 1012.7 |
| 20260507164921 | 17 | 241 | 0.0 | 3.2 | 0.00 | 0.05 | 0.05 | 78 | 1012.6 |
| 20260507164819 | 17 | 241 | 0.0 | 3.2 | 0.00 | 0.05 | 0.05 | 75 | 1012.6 |
| 20260507164721 | 17 | 241 | 0.0 | 3.2 | 0.00 | 0.05 | 0.05 | 77 | 1012.6 |
| 20260507164621 | 17 | 241 | 0.0 | 3.2 | 0.00 | 0.05 | 0.05 | 79 | 1012.7 |
| 20260507164528 | 17 | 241 | 0.0 | 3.2 | 0.00 | 0.05 | 0.05 | 80 | 1012.6 |
| 20260507164420 | 17 | 241 | 0.0 | 3.2 | 0.00 | 0.05 | 0.05 | 79 | 1012.6 |
| 20260507164219 | 17 | 241 | 0.0 | 3.2 | 0.00 | 0.05 | 0.05 | 79 | 1012.6 |
| 20260507164120 | 17 | 241 | 0.0 | 3.2 | 0.00 | 0.05 | 0.05 | 81 | 1012.5 |
| 20260507164037 | 17 | 241 | 0.0 | 1.6 | 0.00 | 0.05 | 0.05 | 81 | 1012.6 |
| 20260507163922 | 17 | 241 | 0.0 | 0.0 | 0.00 | 0.05 | 0.05 | 82 | 1012.5 |
| 20260507163419 | 16 | 241 | 0.0 | 1.6 | 0.00 | 0.05 | 0.05 | 84 | 1012.6 |
| 20260507163321 | 16 | 241 | 1.6 | 3.2 | 0.00 | 0.05 | 0.05 | 84 | 1012.5 |
| 20260507163220 | 16 | 241 | 1.6 | 3.2 | 0.00 | 0.05 | 0.05 | 84 | 1012.6 |
| 20260507163121 | 16 | 241 | 1.6 | 3.2 | 0.00 | 0.05 | 0.05 | 84 | 1012.6 |
| 20260507163005 | 16 | 241 | 1.6 | 4.8 | 0.00 | 0.05 | 0.05 | 84 | 1012.7 |
| 20260507162803 | 15 | 241 | 1.6 | 4.8 | 0.00 | 0.05 | 0.05 | 84 | 1012.7 |
| 20260507162706 | 15 | 241 | 1.6 | 4.8 | 0.00 | 0.05 | 0.05 | 85 | 1012.7 |
| 20260507162603 | 15 | 241 | 1.6 | 4.8 | 0.00 | 0.05 | 0.05 | 84 | 1012.7 |
| 20260507162503 | 15 | 241 | 0.0 | 4.8 | 0.00 | 0.05 | 0.05 | 84 | 1012.7 |
| 20260507162405 | 15 | 241 | 0.0 | 4.8 | 0.00 | 0.05 | 0.05 | 84 | 1012.7 |
| 20260507162307 | 15 | 246 | 0.0 | 4.8 | 0.00 | 0.05 | 0.05 | 84 | 1012.7 |
| 20260507162011 | 16 | 276 | 0.0 | 0.0 | 0.00 | 0.05 | 0.05 | 84 | 1012.8 |
| 20260507161904 | 16 | 276 | 0.0 | 0.0 | 0.00 | 0.05 | 0.05 | 84 | 1012.8 |
| 20260507161804 | 16 | 294 | 0.0 | 0.0 | 0.00 | 0.05 | 0.05 | 83 | 1012.8 |
| 20260507161704 | 16 | 303 | 0.0 | 0.0 | 0.00 | 0.05 | 0.05 | 83 | 1012.9 |
| 20260507161603 | 16 | 303 | 0.0 | 0.0 | 0.00 | 0.05 | 0.05 | 83 | 1012.8 |
| 20260507161405 | 16 | 303 | 0.0 | 0.0 | 0.00 | 0.05 | 0.05 | 82 | 1012.9 |
| 20260507161303 | 16 | 303 | 0.0 | 0.0 | 0.00 | 0.05 | 0.05 | 82 | 1012.8 |
| 20260507161102 | 16 | 303 | 0.0 | 0.0 | 0.00 | 0.05 | 0.05 | 82 | 1012.9 |
| 20260507161009 | 17 | 303 | 0.0 | 0.0 | 0.00 | 0.05 | 0.05 | 82 | 1012.9 |
| 20260507160903 | 17 | 303 | 0.0 | 0.0 | 0.00 | 0.05 | 0.05 | 81 | 1012.9 |
| 20260507160805 | 17 | 303 | 0.0 | 0.0 | 0.00 | 0.05 | 0.05 | 81 | 1012.8 |
| 20260507160704 | 17 | 303 | 0.0 | 0.0 | 0.00 | 0.05 | 0.05 | 81 | 1012.8 |
| 20260507160604 | 17 | 304 | 0.0 | 0.0 | 0.00 | 0.05 | 0.05 | 80 | 1012.9 |
| 20260507160503 | 17 | 304 | 0.0 | 0.0 | 0.00 | 0.05 | 0.05 | 79 | 1012.8 |
| 20260507160405 | 17 | 304 | 0.0 | 0.0 | 0.00 | 0.05 | 0.05 | 80 | 1012.8 |
| 20260507160303 | 17 | 304 | 0.0 | 0.0 | 0.00 | 0.05 | 0.05 | 78 | 1012.8 |
| 20260507160016 | 17 | 304 | 0.0 | 0.0 | 0.00 | 0.05 | 0.05 | 74 | 1012.8 |
| 20260507155706 | 17 | 304 | 0.0 | 0.0 | 0.00 | 0.05 | 0.05 | 78 | 1012.8 |
| 20260507155603 | 17 | 304 | 0.0 | 0.0 | 0.00 | 0.05 | 0.05 | 80 | 1012.6 |
| 20260507155503 | 17 | 304 | 0.0 | 0.0 | 0.00 | 0.05 | 0.05 | 80 | 1012.7 |
| 20260507155405 | 17 | 304 | 0.0 | 0.0 | 0.00 | 0.05 | 0.05 | 81 | 1012.7 |
| 20260507155306 | 17 | 304 | 0.0 | 0.0 | 0.00 | 0.05 | 0.05 | 82 | 1012.7 |
| 20260507155203 | 17 | 304 | 0.0 | 0.0 | 0.00 | 0.05 | 0.05 | 83 | 1012.6 |
| 20260507155103 | 17 | 304 | 0.0 | 0.0 | 0.00 | 0.05 | 0.05 | 82 | 1012.8 |
| 20260507155005 | 17 | 304 | 0.0 | 0.0 | 0.00 | 0.05 | 0.05 | 81 | 1012.7 |
| 20260507154904 | 17 | 304 | 0.0 | 0.0 | 0.00 | 0.05 | 0.05 | 81 | 1012.7 |
| 20260507154804 | 17 | 304 | 0.0 | 0.0 | 0.00 | 0.05 | 0.05 | 80 | 1012.7 |
| 20260507154704 | 17 | 304 | 0.0 | 0.0 | 0.00 | 0.05 | 0.05 | 80 | 1012.8 |
| 20260507154603 | 17 | 304 | 0.0 | 0.0 | 0.00 | 0.05 | 0.05 | 80 | 1012.8 |
| 20260507154503 | 17 | 304 | 0.0 | 3.2 | 0.00 | 0.05 | 0.05 | 79 | 1012.8 |
| 20260507154405 | 17 | 304 | 1.6 | 3.2 | 0.00 | 0.05 | 0.05 | 77 | 1012.8 |
| 20260507154303 | 17 | 38 | 1.6 | 4.8 | 0.00 | 0.05 | 0.05 | 77 | 1012.8 |
| 20260507154204 | 17 | 38 | 1.6 | 4.8 | 0.00 | 0.05 | 0.05 | 78 | 1012.8 |
| 20260507154103 | 17 | 38 | 1.6 | 4.8 | 0.00 | 0.05 | 0.05 | 77 | 1012.7 |
| 20260507154009 | 17 | 38 | 1.6 | 4.8 | 0.00 | 0.05 | 0.05 | 79 | 1012.7 |
| 20260507153903 | 17 | 38 | 1.6 | 4.8 | 0.00 | 0.05 | 0.05 | 76 | 1012.9 |
| 20260507153804 | 17 | 38 | 1.6 | 4.8 | 0.00 | 0.05 | 0.05 | 75 | 1012.8 |
| 20260507153604 | 17 | 38 | 1.6 | 4.8 | 0.00 | 0.05 | 0.05 | 76 | 1012.8 |
| 20260507153503 | 17 | 39 | 1.6 | 4.8 | 0.00 | 0.05 | 0.05 | 75 | 1012.8 |
| 20260507153405 | 17 | 40 | 1.6 | 4.8 | 0.00 | 0.05 | 0.05 | 77 | 1012.8 |
| 20260507153303 | 17 | 44 | 1.6 | 4.8 | 0.00 | 0.05 | 0.05 | 76 | 1012.8 |
| 20260507153203 | 17 | 25 | 1.6 | 4.8 | 0.00 | 0.05 | 0.05 | 77 | 1012.8 |
| 20260507153007 | 17 | 16 | 0.0 | 4.8 | 0.00 | 0.05 | 0.05 | 78 | 1012.7 |
| 20260507152903 | 17 | 82 | 0.0 | 4.8 | 0.00 | 0.05 | 0.05 | 79 | 1012.7 |
| 20260507152803 | 17 | 198 | 0.0 | 1.6 | 0.00 | 0.05 | 0.05 | 80 | 1012.8 |
| 20260507152705 | 17 | 198 | 0.0 | 1.6 | 0.00 | 0.05 | 0.05 | 80 | 1012.9 |
| 20260507152503 | 17 | 198 | 0.0 | 0.0 | 0.00 | 0.05 | 0.05 | 80 | 1012.8 |
| 20260507152306 | 17 | 198 | 0.0 | 0.0 | 0.00 | 0.05 | 0.05 | 83 | 1012.8 |
| 20260507152104 | 16 | 198 | 0.0 | 1.6 | 0.00 | 0.05 | 0.05 | 80 | 1012.9 |
| 20260507152006 | 16 | 198 | 0.0 | 3.2 | 0.00 | 0.05 | 0.05 | 81 | 1012.9 |
| 20260507151903 | 16 | 198 | 0.0 | 3.2 | 0.00 | 0.05 | 0.05 | 80 | 1012.8 |
| 20260507151802 | 16 | 198 | 0.0 | 3.2 | 0.00 | 0.05 | 0.05 | 80 | 1012.9 |
| 20260507151704 | 16 | 198 | 0.0 | 3.2 | 0.00 | 0.05 | 0.05 | 80 | 1013.0 |
| 20260507151604 | 16 | 198 | 1.6 | 3.2 | 0.00 | 0.05 | 0.05 | 81 | 1013.0 |
| 20260507151403 | 16 | 198 | 1.6 | 4.8 | 0.00 | 0.05 | 0.05 | 81 | 1012.9 |
| 20260507151305 | 16 | 198 | 1.6 | 4.8 | 0.00 | 0.05 | 0.05 | 80 | 1012.9 |
| 20260507151203 | 16 | 198 | 1.6 | 4.8 | 0.00 | 0.05 | 0.05 | 80 | 1012.9 |
| 20260507151124 | 16 | 198 | 1.6 | 4.8 | 0.00 | 0.05 | 0.05 | 80 | 1012.9 |
| 20260507151037 | 16 | 198 | 1.6 | 4.8 | 0.00 | 0.05 | 0.05 | 80 | 1012.9 |
| 20260507150922 | 16 | 198 | 1.6 | 4.8 | 0.00 | 0.05 | 0.05 | 80 | 1012.9 |
| 20260507150819 | 16 | 198 | 1.6 | 4.8 | 0.00 | 0.05 | 0.05 | 81 | 1012.9 |
| 20260507150719 | 16 | 198 | 1.6 | 4.8 | 0.00 | 0.05 | 0.05 | 80 | 1013.0 |
| 20260507150621 | 16 | 198 | 1.6 | 4.8 | 0.00 | 0.05 | 0.05 | 80 | 1013.0 |
| 20260507150529 | 16 | 198 | 1.6 | 4.8 | 0.00 | 0.05 | 0.05 | 80 | 1013.0 |
| 20260507150420 | 16 | 198 | 1.6 | 4.8 | 0.00 | 0.05 | 0.05 | 80 | 1013.1 |
| 20260507150320 | 16 | 198 | 1.6 | 4.8 | 0.00 | 0.05 | 0.05 | 80 | 1013.0 |
| 20260507150222 | 16 | 198 | 1.6 | 4.8 | 0.00 | 0.05 | 0.05 | 81 | 1013.1 |
| 20260507150120 | 16 | 198 | 1.6 | 4.8 | 0.00 | 0.05 | 0.05 | 82 | 1013.2 |
| 20260507150039 | 16 | 198 | 1.6 | 4.8 | 0.00 | 0.05 | 0.05 | 81 | 1013.1 |
| 20260507145921 | 16 | 198 | 1.6 | 4.8 | 0.00 | 0.05 | 0.05 | 81 | 1013.2 |
| 20260507145818 | 16 | 198 | 1.6 | 4.8 | 0.00 | 0.05 | 0.05 | 81 | 1013.2 |
| 20260507145719 | 16 | 198 | 1.6 | 4.8 | 0.00 | 0.05 | 0.05 | 83 | 1013.2 |
| 20260507145620 | 16 | 198 | 1.6 | 4.8 | 0.00 | 0.05 | 0.05 | 82 | 1013.2 |
| 20260507145528 | 16 | 198 | 3.2 | 4.8 | 0.00 | 0.05 | 0.05 | 82 | 1013.2 |
| 20260507145418 | 15 | 205 | 3.2 | 4.8 | 0.00 | 0.05 | 0.05 | 82 | 1013.1 |
| 20260507145219 | 16 | 205 | 3.2 | 4.8 | 0.00 | 0.05 | 0.05 | 81 | 1013.1 |
| 20260507145120 | 16 | 205 | 3.2 | 4.8 | 0.00 | 0.05 | 0.05 | 81 | 1013.2 |
| 20260507145037 | 16 | 205 | 1.6 | 4.8 | 0.00 | 0.05 | 0.05 | 81 | 1013.1 |
| 20260507144919 | 16 | 205 | 1.6 | 4.8 | 0.00 | 0.05 | 0.05 | 82 | 1013.2 |
| 20260507144818 | 16 | 205 | 1.6 | 4.8 | 0.00 | 0.05 | 0.05 | 83 | 1013.2 |
| 20260507144618 | 16 | 206 | 1.6 | 4.8 | 0.00 | 0.05 | 0.05 | 83 | 1013.2 |
| 20260507144528 | 16 | 206 | 1.6 | 4.8 | 0.00 | 0.05 | 0.05 | 83 | 1013.3 |
| 20260507144418 | 16 | 232 | 1.6 | 3.2 | 0.00 | 0.05 | 0.05 | 82 | 1013.2 |
| 20260507144218 | 16 | 236 | 1.6 | 3.2 | 0.00 | 0.05 | 0.05 | 82 | 1013.3 |
| 20260507144120 | 16 | 236 | 1.6 | 3.2 | 0.00 | 0.05 | 0.05 | 82 | 1013.2 |
| 20260507144037 | 16 | 236 | 1.6 | 3.2 | 0.00 | 0.05 | 0.05 | 83 | 1013.1 |
| 20260507143918 | 16 | 236 | 1.6 | 3.2 | 0.00 | 0.05 | 0.05 | 82 | 1013.2 |
| 20260507143819 | 16 | 236 | 1.6 | 3.2 | 0.00 | 0.05 | 0.05 | 82 | 1013.2 |
| 20260507143721 | 16 | 236 | 1.6 | 3.2 | 0.00 | 0.05 | 0.05 | 82 | 1013.2 |
| 20260507143618 | 16 | 236 | 1.6 | 3.2 | 0.00 | 0.05 | 0.05 | 84 | 1013.2 |
| 20260507143528 | 16 | 236 | 1.6 | 3.2 | 0.00 | 0.05 | 0.05 | 85 | 1013.3 |
| 20260507143418 | 16 | 236 | 1.6 | 3.2 | 0.00 | 0.05 | 0.05 | 84 | 1013.2 |
| 20260507143320 | 16 | 236 | 1.6 | 3.2 | 0.00 | 0.05 | 0.05 | 84 | 1013.2 |
| 20260507143219 | 16 | 236 | 1.6 | 3.2 | 0.00 | 0.05 | 0.05 | 83 | 1013.2 |
| 20260507143122 | 16 | 236 | 1.6 | 3.2 | 0.00 | 0.05 | 0.05 | 82 | 1013.2 |
| 20260507143038 | 16 | 237 | 1.6 | 3.2 | 0.00 | 0.05 | 0.05 | 83 | 1013.2 |
| 20260507142921 | 16 | 240 | 0.0 | 3.2 | 0.00 | 0.05 | 0.05 | 83 | 1013.2 |
| 20260507142820 | 16 | 246 | 0.0 | 3.2 | 0.00 | 0.05 | 0.05 | 82 | 1013.2 |
| 20260507142722 | 16 | 251 | 0.0 | 3.2 | 0.00 | 0.05 | 0.05 | 82 | 1013.2 |
| 20260507142620 | 16 | 251 | 0.0 | 3.2 | 0.00 | 0.05 | 0.05 | 81 | 1013.3 |
| 20260507142529 | 16 | 251 | 0.0 | 3.2 | 0.00 | 0.05 | 0.05 | 80 | 1013.2 |
| 20260507142419 | 16 | 251 | 0.0 | 3.2 | 0.00 | 0.05 | 0.05 | 79 | 1013.3 |
| 20260507142321 | 16 | 251 | 0.0 | 3.2 | 0.00 | 0.05 | 0.05 | 79 | 1013.2 |
| 20260507142220 | 16 | 251 | 0.0 | 3.2 | 0.00 | 0.05 | 0.05 | 80 | 1013.3 |
| 20260507142038 | 16 | 251 | 0.0 | 0.0 | 0.00 | 0.05 | 0.05 | 81 | 1013.4 |
| 20260507141920 | 16 | 251 | 0.0 | 0.0 | 0.00 | 0.05 | 0.05 | 80 | 1013.4 |
| 20260507141820 | 16 | 251 | 0.0 | 1.6 | 0.00 | 0.05 | 0.05 | 79 | 1013.3 |
| 20260507141722 | 16 | 251 | 0.0 | 3.2 | 0.00 | 0.05 | 0.05 | 79 | 1013.3 |
| 20260507141619 | 16 | 251 | 0.0 | 3.2 | 0.00 | 0.05 | 0.05 | 80 | 1013.3 |
| 20260507141530 | 16 | 251 | 0.0 | 3.2 | 0.00 | 0.05 | 0.05 | 80 | 1013.3 |
| 20260507141419 | 16 | 251 | 0.0 | 3.2 | 0.00 | 0.05 | 0.05 | 80 | 1013.3 |
| 20260507141321 | 16 | 251 | 1.6 | 3.2 | 0.00 | 0.05 | 0.05 | 80 | 1013.3 |
| 20260507141220 | 16 | 251 | 1.6 | 3.2 | 0.00 | 0.05 | 0.05 | 79 | 1013.3 |
| 20260507141122 | 16 | 251 | 1.6 | 3.2 | 0.00 | 0.05 | 0.05 | 79 | 1013.2 |
| 20260507140919 | 16 | 251 | 1.6 | 4.8 | 0.00 | 0.05 | 0.05 | 80 | 1013.3 |
| 20260507140819 | 16 | 221 | 1.6 | 4.8 | 0.00 | 0.05 | 0.05 | 81 | 1013.5 |
| 20260507140722 | 16 | 219 | 1.6 | 4.8 | 0.00 | 0.05 | 0.05 | 80 | 1013.4 |
| 20260507140619 | 16 | 219 | 1.6 | 4.8 | 0.00 | 0.05 | 0.05 | 80 | 1013.4 |
| 20260507140529 | 16 | 219 | 1.6 | 4.8 | 0.00 | 0.05 | 0.05 | 79 | 1013.4 |
| 20260507140420 | 16 | 219 | 1.6 | 4.8 | 0.00 | 0.05 | 0.05 | 80 | 1013.3 |
| 20260507140219 | 16 | 236 | 1.6 | 4.8 | 0.00 | 0.05 | 0.05 | 80 | 1013.4 |
| 20260507140128 | 16 | 236 | 0.0 | 4.8 | 0.00 | 0.05 | 0.05 | 80 | 1013.4 |
| 20260507135920 | 16 | 22 | 0.0 | 3.2 | 0.00 | 0.05 | 0.05 | 79 | 1013.4 |
| 20260507135821 | 16 | 22 | 0.0 | 3.2 | 0.00 | 0.05 | 0.05 | 79 | 1013.4 |
| 20260507135620 | 16 | 355 | 0.0 | 0.0 | 0.00 | 0.05 | 0.05 | 80 | 1013.5 |
| 20260507135527 | 16 | 355 | 0.0 | 0.0 | 0.00 | 0.05 | 0.05 | 81 | 1013.5 |
| 20260507135422 | 16 | 355 | 0.0 | 0.0 | 0.00 | 0.05 | 0.05 | 80 | 1013.5 |
| 20260507135320 | 16 | 355 | 0.0 | 0.0 | 0.00 | 0.05 | 0.05 | 80 | 1013.4 |
| 20260507135219 | 16 | 355 | 0.0 | 0.0 | 0.00 | 0.05 | 0.05 | 79 | 1013.3 |
| 20260507134920 | 16 | 355 | 0.0 | 1.6 | 0.00 | 0.05 | 0.05 | 80 | 1013.5 |
| 20260507134721 | 16 | 355 | 0.0 | 1.6 | 0.00 | 0.05 | 0.05 | 80 | 1013.4 |
| 20260507134620 | 16 | 355 | 0.0 | 1.6 | 0.00 | 0.05 | 0.05 | 82 | 1013.4 |
| 20260507134527 | 16 | 355 | 0.0 | 3.2 | 0.00 | 0.05 | 0.05 | 81 | 1013.5 |
| 20260507134321 | 16 | 355 | 0.0 | 3.2 | 0.00 | 0.05 | 0.05 | 82 | 1013.5 |
| 20260507134220 | 16 | 355 | 0.0 | 3.2 | 0.00 | 0.05 | 0.05 | 82 | 1013.4 |
| 20260507134120 | 16 | 355 | 0.0 | 3.2 | 0.00 | 0.05 | 0.05 | 80 | 1013.4 |
| 20260507134038 | 16 | 355 | 0.0 | 3.2 | 0.00 | 0.05 | 0.05 | 80 | 1013.4 |
| 20260507133819 | 16 | 355 | 0.0 | 3.2 | 0.00 | 0.05 | 0.05 | 80 | 1013.5 |
| 20260507133721 | 16 | 355 | 0.0 | 3.2 | 0.00 | 0.05 | 0.05 | 80 | 1013.5 |
| 20260507133621 | 16 | 355 | 0.0 | 1.6 | 0.00 | 0.05 | 0.05 | 80 | 1013.7 |
| 20260507133529 | 16 | 355 | 0.0 | 1.6 | 0.00 | 0.05 | 0.05 | 81 | 1013.6 |
| 20260507133421 | 16 | 355 | 0.0 | 1.6 | 0.00 | 0.05 | 0.05 | 80 | 1013.6 |
| 20260507133320 | 16 | 355 | 0.0 | 1.6 | 0.00 | 0.05 | 0.05 | 79 | 1013.6 |
| 20260507133219 | 16 | 355 | 0.0 | 1.6 | 0.00 | 0.05 | 0.05 | 80 | 1013.7 |
| 20260507132920 | 16 | 355 | 1.6 | 6.4 | 0.00 | 0.05 | 0.05 | 80 | 1013.6 |
| 20260507132822 | 16 | 355 | 1.6 | 6.4 | 0.03 | 0.05 | 0.05 | 80 | 1013.6 |
| 20260507132719 | 16 | 355 | 1.6 | 6.4 | 0.03 | 0.05 | 0.05 | 80 | 1013.6 |
| 20260507132621 | 15 | 355 | 1.6 | 6.4 | 0.03 | 0.05 | 0.05 | 80 | 1013.7 |
| 20260507132527 | 15 | 355 | 1.6 | 6.4 | 0.05 | 0.05 | 0.05 | 80 | 1013.7 |
| 20260507132421 | 15 | 355 | 1.6 | 6.4 | 0.05 | 0.05 | 0.05 | 80 | 1013.7 |
| 20260507132320 | 15 | 355 | 1.6 | 6.4 | 0.05 | 0.05 | 0.05 | 81 | 1013.7 |
| 20260507132224 | 15 | 355 | 1.6 | 6.4 | 0.05 | 0.05 | 0.05 | 82 | 1013.7 |
| 20260507132121 | 15 | 22 | 1.6 | 6.4 | 0.05 | 0.05 | 0.05 | 82 | 1013.6 |
| 20260507132037 | 15 | 46 | 1.6 | 6.4 | 0.05 | 0.05 | 0.05 | 82 | 1013.7 |
| 20260507131920 | 15 | 27 | 1.6 | 6.4 | 0.05 | 0.05 | 0.05 | 82 | 1013.8 |
| 20260507131822 | 15 | 27 | 3.2 | 6.4 | 0.05 | 0.05 | 0.05 | 82 | 1013.7 |
| 20260507131621 | 15 | 351 | 3.2 | 6.4 | 0.05 | 0.05 | 0.05 | 84 | 1013.7 |
| 20260507131421 | 15 | 338 | 1.6 | 6.4 | 0.05 | 0.05 | 0.05 | 84 | 1013.7 |
| 20260507131320 | 15 | 83 | 3.2 | 6.4 | 0.05 | 0.05 | 0.05 | 83 | 1013.8 |
| 20260507131221 | 15 | 83 | 3.2 | 6.4 | 0.05 | 0.05 | 0.05 | 83 | 1013.8 |
| 20260507131121 | 15 | 55 | 1.6 | 6.4 | 0.05 | 0.05 | 0.05 | 85 | 1013.7 |
| 20260507131042 | 15 | 43 | 1.6 | 6.4 | 0.05 | 0.05 | 0.05 | 85 | 1013.7 |
| 20260507130920 | 15 | 47 | 1.6 | 8.0 | 0.05 | 0.05 | 0.05 | 84 | 1013.7 |
| 20260507130822 | 15 | 49 | 1.6 | 8.0 | 0.05 | 0.05 | 0.05 | 84 | 1013.7 |
| 20260507130720 | 15 | 139 | 1.6 | 8.0 | 0.05 | 0.05 | 0.05 | 84 | 1013.7 |
| 20260507130621 | 15 | 139 | 1.6 | 8.0 | 0.05 | 0.05 | 0.05 | 84 | 1013.7 |
| 20260507130527 | 15 | 139 | 1.6 | 8.0 | 0.05 | 0.05 | 0.05 | 85 | 1013.7 |
| 20260507130421 | 15 | 137 | 1.6 | 8.0 | 0.05 | 0.05 | 0.05 | 85 | 1013.9 |
| 20260507130319 | 15 | 136 | 1.6 | 8.0 | 0.05 | 0.05 | 0.05 | 85 | 1013.7 |
| 20260507130222 | 15 | 150 | 1.6 | 8.0 | 0.05 | 0.05 | 0.05 | 87 | 1013.8 |
| 20260507130040 | 15 | 150 | 1.6 | 8.0 | 0.05 | 0.05 | 0.05 | 88 | 1013.8 |
| 20260507125820 | 14 | 125 | 0.0 | 3.2 | 0.05 | 0.05 | 0.05 | 88 | 1013.9 |
| 20260507125619 | 14 | 120 | 0.0 | 3.2 | 0.05 | 0.05 | 0.05 | 88 | 1013.7 |
| 20260507125530 | 14 | 120 | 0.0 | 0.0 | 0.05 | 0.05 | 0.05 | 88 | 1013.8 |
| 20260507125418 | 14 | 120 | 0.0 | 0.0 | 0.05 | 0.05 | 0.05 | 89 | 1013.8 |
| 20260507125320 | 14 | 120 | 0.0 | 1.6 | 0.05 | 0.05 | 0.05 | 89 | 1013.8 |
| 20260507125218 | 14 | 120 | 0.0 | 3.2 | 0.05 | 0.05 | 0.05 | 89 | 1013.8 |
| 20260507125120 | 14 | 120 | 0.0 | 3.2 | 0.05 | 0.05 | 0.05 | 89 | 1013.7 |
| 20260507125041 | 14 | 120 | 0.0 | 3.2 | 0.05 | 0.05 | 0.05 | 89 | 1013.9 |
| 20260507124922 | 14 | 120 | 0.0 | 3.2 | 0.05 | 0.05 | 0.05 | 89 | 1013.9 |
| 20260507124820 | 14 | 120 | 0.0 | 3.2 | 0.05 | 0.05 | 0.05 | 89 | 1013.9 |
| 20260507124718 | 14 | 120 | 0.0 | 3.2 | 0.05 | 0.05 | 0.05 | 88 | 1014.0 |
| 20260507124619 | 14 | 120 | 0.0 | 3.2 | 0.05 | 0.05 | 0.05 | 89 | 1013.9 |
| 20260507124529 | 14 | 120 | 0.0 | 3.2 | 0.05 | 0.05 | 0.05 | 89 | 1013.9 |
| 20260507124419 | 14 | 120 | 0.0 | 3.2 | 0.05 | 0.05 | 0.05 | 89 | 1014.0 |
| 20260507124218 | 14 | 119 | 0.0 | 3.2 | 0.05 | 0.05 | 0.05 | 87 | 1013.9 |
| 20260507124120 | 14 | 119 | 1.6 | 3.2 | 0.05 | 0.05 | 0.05 | 87 | 1014.0 |
| 20260507124042 | 14 | 119 | 1.6 | 3.2 | 0.05 | 0.05 | 0.05 | 87 | 1013.8 |
| 20260507123920 | 14 | 119 | 1.6 | 4.8 | 0.05 | 0.05 | 0.05 | 87 | 1013.8 |
| 20260507123820 | 14 | 153 | 1.6 | 6.4 | 0.05 | 0.05 | 0.05 | 87 | 1013.8 |
| 20260507123719 | 14 | 153 | 1.6 | 6.4 | 0.05 | 0.05 | 0.05 | 87 | 1013.9 |
| 20260507123619 | 14 | 153 | 1.6 | 6.4 | 0.05 | 0.05 | 0.05 | 87 | 1013.9 |
| 20260507123529 | 14 | 153 | 1.6 | 6.4 | 0.05 | 0.05 | 0.05 | 88 | 1013.9 |
| 20260507123419 | 14 | 183 | 3.2 | 6.4 | 0.05 | 0.05 | 0.05 | 87 | 1014.0 |
| 20260507123219 | 14 | 184 | 3.2 | 6.4 | 0.05 | 0.05 | 0.05 | 86 | 1014.0 |
| 20260507123120 | 14 | 184 | 3.2 | 6.4 | 0.05 | 0.05 | 0.05 | 85 | 1014.0 |
| 20260507123035 | 14 | 183 | 3.2 | 6.4 | 0.05 | 0.05 | 0.05 | 85 | 1014.0 |
| 20260507122920 | 15 | 183 | 3.2 | 6.4 | 0.05 | 0.05 | 0.05 | 86 | 1014.0 |
| 20260507122820 | 15 | 182 | 1.6 | 6.4 | 0.03 | 0.03 | 0.03 | 86 | 1014.0 |
| 20260507122718 | 15 | 182 | 1.6 | 6.4 | 0.03 | 0.03 | 0.03 | 85 | 1014.0 |
| 20260507122529 | 15 | 183 | 1.6 | 6.4 | 0.00 | 0.00 | 0.00 | 85 | 1014.0 |
| 20260507122418 | 15 | 186 | 1.6 | 6.4 | 0.00 | 0.00 | 0.00 | 84 | 1014.0 |
| 20260507122218 | 15 | 194 | 0.0 | 4.8 | 0.00 | 0.00 | 0.00 | 83 | 1013.9 |
| 20260507122120 | 15 | 234 | 0.0 | 4.8 | 0.00 | 0.00 | 0.00 | 83 | 1013.9 |
| 20260507122036 | 15 | 236 | 0.0 | 4.8 | 0.00 | 0.00 | 0.00 | 83 | 1014.0 |
| 20260507121921 | 15 | 296 | 1.6 | 4.8 | 0.00 | 0.00 | 0.00 | 82 | 1013.8 |
| 20260507121820 | 15 | 296 | 1.6 | 8.0 | 0.00 | 0.00 | 0.00 | 82 | 1013.9 |
| 20260507121718 | 15 | 296 | 1.6 | 8.0 | 0.00 | 0.00 | 0.00 | 82 | 1014.0 |
| 20260507121619 | 15 | 297 | 1.6 | 8.0 | 0.00 | 0.00 | 0.00 | 82 | 1013.8 |
| 20260507121529 | 15 | 80 | 1.6 | 8.0 | 0.00 | 0.00 | 0.00 | 82 | 1013.8 |
| 20260507121319 | 15 | 80 | 3.2 | 8.0 | 0.00 | 0.00 | 0.00 | 81 | 1013.8 |
| 20260507121221 | 15 | 82 | 3.2 | 8.0 | 0.00 | 0.00 | 0.00 | 81 | 1013.8 |
| 20260507121120 | 15 | 82 | 3.2 | 8.0 | 0.00 | 0.00 | 0.00 | 82 | 1013.9 |
| 20260507121039 | 15 | 82 | 4.8 | 8.0 | 0.00 | 0.00 | 0.00 | 82 | 1013.9 |
| 20260507120921 | 15 | 88 | 4.8 | 8.0 | 0.00 | 0.00 | 0.00 | 81 | 1013.8 |
| 20260507120821 | 15 | 84 | 4.8 | 12.9 | 0.00 | 0.00 | 0.00 | 81 | 1013.9 |
| 20260507120719 | 15 | 71 | 4.8 | 12.9 | 0.00 | 0.00 | 0.00 | 82 | 1013.8 |
| 20260507120619 | 15 | 98 | 6.4 | 12.9 | 0.00 | 0.00 | 0.00 | 82 | 1013.8 |
| 20260507120419 | 15 | 62 | 8.0 | 17.7 | 0.00 | 0.00 | 0.00 | 82 | 1014.0 |
| 20260507120219 | 15 | 52 | 9.7 | 17.7 | 0.00 | 0.00 | 0.00 | 81 | 1013.8 |
| 20260507120039 | 15 | 39 | 9.7 | 17.7 | 0.00 | 0.00 | 0.00 | 82 | 1014.0 |
| 20260507115920 | 15 | 48 | 9.7 | 17.7 | 0.00 | 0.00 | 0.00 | 82 | 1014.0 |
| 20260507115720 | 15 | 62 | 11.3 | 17.7 | 0.00 | 0.00 | 0.00 | 81 | 1013.9 |
| 20260507115619 | 15 | 46 | 11.3 | 17.7 | 0.00 | 0.00 | 0.00 | 81 | 1013.9 |
| 20260507115531 | 15 | 49 | 9.7 | 17.7 | 0.00 | 0.00 | 0.00 | 81 | 1013.9 |
| 20260507115420 | 15 | 41 | 9.7 | 19.3 | 0.00 | 0.00 | 0.00 | 81 | 1013.9 |
| 20260507115322 | 15 | 51 | 9.7 | 19.3 | 0.00 | 0.00 | 0.00 | 80 | 1014.0 |
| 20260507115220 | 15 | 72 | 8.0 | 19.3 | 0.00 | 0.00 | 0.00 | 80 | 1013.9 |
| 20260507115118 | 15 | 67 | 8.0 | 19.3 | 0.00 | 0.00 | 0.00 | 80 | 1014.0 |
| 20260507115039 | 15 | 61 | 8.0 | 19.3 | 0.00 | 0.00 | 0.00 | 80 | 1014.0 |
| 20260507114921 | 15 | 55 | 6.4 | 19.3 | 0.00 | 0.00 | 0.00 | 79 | 1013.9 |
| 20260507114818 | 15 | 62 | 6.4 | 19.3 | 0.00 | 0.00 | 0.00 | 79 | 1014.0 |
| 20260507114720 | 15 | 59 | 6.4 | 19.3 | 0.00 | 0.00 | 0.00 | 79 | 1014.1 |
| 20260507114619 | 15 | 30 | 4.8 | 17.7 | 0.00 | 0.00 | 0.00 | 80 | 1014.0 |
| 20260507114527 | 15 | 28 | 4.8 | 9.7 | 0.00 | 0.00 | 0.00 | 79 | 1014.0 |
| 20260507114320 | 15 | 327 | 6.4 | 11.3 | 0.00 | 0.00 | 0.00 | 79 | 1013.8 |
| 20260507114220 | 15 | 333 | 6.4 | 11.3 | 0.00 | 0.00 | 0.00 | 79 | 1013.8 |
| 20260507114119 | 15 | 65 | 6.4 | 11.3 | 0.00 | 0.00 | 0.00 | 80 | 1014.0 |
| 20260507114036 | 15 | 49 | 6.4 | 11.3 | 0.00 | 0.00 | 0.00 | 79 | 1013.9 |
| 20260507113921 | 15 | 24 | 6.4 | 11.3 | 0.00 | 0.00 | 0.00 | 79 | 1014.0 |
| 20260507113819 | 15 | 22 | 6.4 | 11.3 | 0.00 | 0.00 | 0.00 | 79 | 1014.1 |
| 20260507113720 | 15 | 28 | 6.4 | 11.3 | 0.00 | 0.00 | 0.00 | 78 | 1014.0 |
| 20260507113528 | 15 | 53 | 4.8 | 12.9 | 0.00 | 0.00 | 0.00 | 78 | 1014.1 |
| 20260507113321 | 16 | 54 | 4.8 | 12.9 | 0.00 | 0.00 | 0.00 | 79 | 1014.0 |
| 20260507113220 | 16 | 47 | 4.8 | 12.9 | 0.00 | 0.00 | 0.00 | 80 | 1014.1 |
| 20260507113119 | 16 | 16 | 6.4 | 12.9 | 0.00 | 0.00 | 0.00 | 79 | 1014.0 |
| 20260507113036 | 15 | 360 | 6.4 | 12.9 | 0.00 | 0.00 | 0.00 | 78 | 1014.1 |
| 20260507112921 | 16 | 355 | 6.4 | 12.9 | 0.00 | 0.00 | 0.00 | 79 | 1014.0 |
| 20260507112818 | 16 | 20 | 6.4 | 12.9 | 0.00 | 0.00 | 0.00 | 79 | 1014.0 |
| 20260507112720 | 16 | 15 | 4.8 | 12.9 | 0.00 | 0.00 | 0.00 | 78 | 1014.1 |
| 20260507112618 | 16 | 40 | 4.8 | 12.9 | 0.00 | 0.00 | 0.00 | 79 | 1014.0 |
| 20260507112528 | 16 | 30 | 4.8 | 12.9 | 0.00 | 0.00 | 0.00 | 78 | 1014.0 |
| 20260507112321 | 16 | 32 | 3.2 | 12.9 | 0.00 | 0.00 | 0.00 | 78 | 1013.9 |
| 20260507112118 | 16 | 47 | 3.2 | 8.0 | 0.00 | 0.00 | 0.00 | 78 | 1013.9 |
| 20260507112036 | 16 | 360 | 3.2 | 8.0 | 0.00 | 0.00 | 0.00 | 78 | 1014.0 |
| 20260507111921 | 16 | 54 | 3.2 | 6.4 | 0.00 | 0.00 | 0.00 | 78 | 1014.0 |
| 20260507111802 | 16 | 5 | 1.6 | 6.4 | 0.00 | 0.00 | 0.00 | 78 | 1014.1 |
| 20260507111703 | 16 | 58 | 1.6 | 6.4 | 0.00 | 0.00 | 0.00 | 78 | 1014.0 |
| 20260507111602 | 16 | 91 | 3.2 | 6.4 | 0.00 | 0.00 | 0.00 | 78 | 1014.1 |
| 20260507111506 | 16 | 92 | 3.2 | 8.0 | 0.00 | 0.00 | 0.00 | 78 | 1014.0 |
| 20260507111402 | 16 | 262 | 3.2 | 9.7 | 0.00 | 0.00 | 0.00 | 78 | 1014.0 |
| 20260507111320 | 16 | 265 | 3.2 | 9.7 | 0.00 | 0.00 | 0.00 | 77 | 1014.0 |
| 20260507111219 | 16 | 263 | 3.2 | 9.7 | 0.00 | 0.00 | 0.00 | 77 | 1014.2 |
| 20260507111121 | 16 | 259 | 3.2 | 9.7 | 0.00 | 0.00 | 0.00 | 77 | 1014.0 |
| 20260507111037 | 16 | 279 | 3.2 | 9.7 | 0.00 | 0.00 | 0.00 | 78 | 1014.0 |
| 20260507110819 | 16 | 30 | 3.2 | 9.7 | 0.00 | 0.00 | 0.00 | 78 | 1014.1 |
| 20260507110720 | 16 | 31 | 4.8 | 9.7 | 0.00 | 0.00 | 0.00 | 78 | 1014.0 |
| 20260507110619 | 16 | 36 | 3.2 | 9.7 | 0.00 | 0.00 | 0.00 | 78 | 1014.0 |
| 20260507110528 | 16 | 35 | 3.2 | 8.0 | 0.00 | 0.00 | 0.00 | 78 | 1014.0 |
| 20260507110303 | 16 | 61 | 3.2 | 6.4 | 0.00 | 0.00 | 0.00 | 77 | 1014.0 |
| 20260507110203 | 16 | 69 | 3.2 | 6.4 | 0.00 | 0.00 | 0.00 | 77 | 1014.1 |
| 20260507110031 | 16 | 5 | 3.2 | 6.4 | 0.00 | 0.00 | 0.00 | 77 | 1014.1 |
| 20260507105921 | 16 | 5 | 3.2 | 9.7 | 0.00 | 0.00 | 0.00 | 77 | 1014.1 |
| 20260507105818 | 16 | 47 | 3.2 | 9.7 | 0.00 | 0.00 | 0.00 | 77 | 1014.1 |
| 20260507105718 | 16 | 22 | 3.2 | 9.7 | 0.00 | 0.00 | 0.00 | 78 | 1014.1 |
| 20260507105618 | 16 | 42 | 3.2 | 9.7 | 0.00 | 0.00 | 0.00 | 77 | 1014.1 |
| 20260507105529 | 16 | 42 | 3.2 | 9.7 | 0.00 | 0.00 | 0.00 | 77 | 1014.1 |
| 20260507105418 | 16 | 42 | 3.2 | 9.7 | 0.00 | 0.00 | 0.00 | 77 | 1014.1 |
| 20260507105319 | 16 | 28 | 3.2 | 9.7 | 0.00 | 0.00 | 0.00 | 77 | 1014.0 |
| 20260507105120 | 16 | 246 | 3.2 | 9.7 | 0.00 | 0.00 | 0.00 | 77 | 1014.1 |
| 20260507105036 | 16 | 343 | 3.2 | 9.7 | 0.00 | 0.00 | 0.00 | 77 | 1014.1 |
| 20260507104819 | 16 | 50 | 3.2 | 9.7 | 0.00 | 0.00 | 0.00 | 76 | 1014.0 |
| 20260507104620 | 16 | 27 | 4.8 | 9.7 | 0.00 | 0.00 | 0.00 | 77 | 1014.1 |
| 20260507104527 | 16 | 273 | 4.8 | 12.9 | 0.00 | 0.00 | 0.00 | 76 | 1014.0 |
| 20260507104419 | 16 | 313 | 4.8 | 12.9 | 0.00 | 0.00 | 0.00 | 76 | 1014.1 |
| 20260507104321 | 16 | 267 | 4.8 | 12.9 | 0.00 | 0.00 | 0.00 | 75 | 1014.0 |
| 20260507104218 | 16 | 11 | 4.8 | 12.9 | 0.00 | 0.00 | 0.00 | 75 | 1014.0 |
| 20260507104039 | 16 | 334 | 4.8 | 12.9 | 0.00 | 0.00 | 0.00 | 75 | 1014.1 |
| 20260507103920 | 16 | 26 | 4.8 | 12.9 | 0.00 | 0.00 | 0.00 | 75 | 1014.1 |
| 20260507103818 | 16 | 19 | 4.8 | 12.9 | 0.00 | 0.00 | 0.00 | 75 | 1014.0 |
| 20260507103619 | 16 | 39 | 4.8 | 9.7 | 0.00 | 0.00 | 0.00 | 73 | 1014.0 |
| 20260507103527 | 16 | 42 | 3.2 | 9.7 | 0.00 | 0.00 | 0.00 | 75 | 1014.1 |
| 20260507103419 | 16 | 267 | 3.2 | 9.7 | 0.00 | 0.00 | 0.00 | 74 | 1014.0 |
| 20260507103321 | 16 | 269 | 4.8 | 9.7 | 0.00 | 0.00 | 0.00 | 73 | 1014.0 |
| 20260507103218 | 16 | 302 | 4.8 | 9.7 | 0.00 | 0.00 | 0.00 | 73 | 1014.0 |
| 20260507103120 | 16 | 309 | 3.2 | 9.7 | 0.00 | 0.00 | 0.00 | 73 | 1014.1 |
| 20260507103036 | 16 | 347 | 3.2 | 9.7 | 0.00 | 0.00 | 0.00 | 72 | 1014.0 |
| 20260507102920 | 16 | 34 | 4.8 | 9.7 | 0.00 | 0.00 | 0.00 | 71 | 1014.0 |
| 20260507102819 | 16 | 17 | 4.8 | 9.7 | 0.00 | 0.00 | 0.00 | 72 | 1013.9 |
| 20260507102721 | 16 | 351 | 4.8 | 9.7 | 0.00 | 0.00 | 0.00 | 72 | 1014.1 |
| 20260507102620 | 17 | 341 | 3.2 | 14.5 | 0.00 | 0.00 | 0.00 | 73 | 1014.1 |
| 20260507102527 | 17 | 61 | 3.2 | 14.5 | 0.00 | 0.00 | 0.00 | 72 | 1014.0 |
| 20260507102321 | 17 | 355 | 4.8 | 14.5 | 0.00 | 0.00 | 0.00 | 72 | 1014.0 |
| 20260507102218 | 17 | 302 | 4.8 | 14.5 | 0.00 | 0.00 | 0.00 | 72 | 1014.1 |
| 20260507102120 | 17 | 320 | 4.8 | 14.5 | 0.00 | 0.00 | 0.00 | 72 | 1014.0 |
| 20260507101619 | 17 | 62 | 4.8 | 9.7 | 0.00 | 0.00 | 0.00 | 74 | 1013.9 |
| 20260507101321 | 17 | 44 | 4.8 | 9.7 | 0.00 | 0.00 | 0.00 | 70 | 1014.1 |
| 20260507101202 | 17 | 45 | 4.8 | 9.7 | 0.00 | 0.00 | 0.00 | 71 | 1014.0 |
| 20260507101101 | 17 | 75 | 3.2 | 9.7 | 0.00 | 0.00 | 0.00 | 73 | 1014.0 |
| 20260507100904 | 17 | 41 | 3.2 | 9.7 | 0.00 | 0.00 | 0.00 | 72 | 1014.0 |
| 20260507100801 | 17 | 61 | 3.2 | 9.7 | 0.00 | 0.00 | 0.00 | 71 | 1014.0 |
| 20260507100701 | 17 | 56 | 1.6 | 8.0 | 0.00 | 0.00 | 0.00 | 71 | 1014.0 |
| 20260507100602 | 17 | 66 | 1.6 | 6.4 | 0.00 | 0.00 | 0.00 | 73 | 1014.0 |
| 20260507100504 | 17 | 138 | 1.6 | 4.8 | 0.00 | 0.00 | 0.00 | 71 | 1014.0 |
| 20260507100402 | 16 | 138 | 1.6 | 4.8 | 0.00 | 0.00 | 0.00 | 71 | 1014.0 |
| 20260507100302 | 16 | 138 | 1.6 | 4.8 | 0.00 | 0.00 | 0.00 | 72 | 1014.0 |
| 20260507100006 | 16 | 138 | 1.6 | 4.8 | 0.00 | 0.00 | 0.00 | 70 | 1014.0 |
| 20260507095804 | 16 | 105 | 0.0 | 4.8 | 0.00 | 0.00 | 0.00 | 70 | 1014.2 |
| 20260507095702 | 17 | 111 | 0.0 | 3.2 | 0.00 | 0.00 | 0.00 | 72 | 1014.2 |
| 20260507095602 | 16 | 112 | 0.0 | 1.6 | 0.00 | 0.00 | 0.00 | 71 | 1014.1 |
| 20260507095305 | 16 | 112 | 1.6 | 4.8 | 0.00 | 0.00 | 0.00 | 72 | 1014.1 |
| 20260507095201 | 16 | 112 | 1.6 | 4.8 | 0.00 | 0.00 | 0.00 | 72 | 1014.1 |
| 20260507095002 | 16 | 112 | 1.6 | 4.8 | 0.00 | 0.00 | 0.00 | 74 | 1014.1 |
| 20260507094902 | 16 | 112 | 3.2 | 6.4 | 0.00 | 0.00 | 0.00 | 75 | 1014.1 |
| 20260507094802 | 16 | 112 | 3.2 | 8.0 | 0.00 | 0.00 | 0.00 | 74 | 1014.0 |
| 20260507094401 | 16 | 113 | 4.8 | 8.0 | 0.00 | 0.00 | 0.00 | 74 | 1014.1 |
| 20260507094304 | 16 | 46 | 4.8 | 9.7 | 0.00 | 0.00 | 0.00 | 74 | 1014.0 |
| 20260507094202 | 16 | 43 | 6.4 | 12.9 | 0.00 | 0.00 | 0.00 | 73 | 1014.0 |
| 20260507094101 | 16 | 46 | 6.4 | 12.9 | 0.00 | 0.00 | 0.00 | 72 | 1014.0 |
| 20260507094002 | 16 | 86 | 4.8 | 12.9 | 0.00 | 0.00 | 0.00 | 73 | 1014.0 |
| 20260507093904 | 16 | 84 | 4.8 | 12.9 | 0.00 | 0.00 | 0.00 | 71 | 1014.1 |
| 20260507093802 | 16 | 95 | 4.8 | 12.9 | 0.00 | 0.00 | 0.00 | 71 | 1014.1 |
| 20260507093702 | 16 | 92 | 4.8 | 12.9 | 0.00 | 0.00 | 0.00 | 71 | 1014.1 |
| 20260507093602 | 16 | 75 | 4.8 | 12.9 | 0.00 | 0.00 | 0.00 | 70 | 1014.1 |
| 20260507093505 | 16 | 84 | 3.2 | 12.9 | 0.00 | 0.00 | 0.00 | 73 | 1014.0 |
| 20260507093402 | 16 | 67 | 3.2 | 12.9 | 0.00 | 0.00 | 0.00 | 73 | 1014.1 |
| 20260507093301 | 16 | 61 | 3.2 | 12.9 | 0.00 | 0.00 | 0.00 | 73 | 1014.0 |
| 20260507093204 | 16 | 54 | 3.2 | 12.9 | 0.00 | 0.00 | 0.00 | 72 | 1014.1 |
| 20260507093103 | 16 | 74 | 3.2 | 8.0 | 0.00 | 0.00 | 0.00 | 72 | 1014.1 |
| 20260507093004 | 16 | 148 | 1.6 | 8.0 | 0.00 | 0.00 | 0.00 | 72 | 1014.0 |
| 20260507092901 | 16 | 163 | 1.6 | 8.0 | 0.00 | 0.00 | 0.00 | 71 | 1014.1 |
| 20260507092804 | 16 | 147 | 1.6 | 8.0 | 0.00 | 0.00 | 0.00 | 72 | 1014.0 |
| 20260507092701 | 16 | 111 | 1.6 | 8.0 | 0.00 | 0.00 | 0.00 | 71 | 1014.1 |
| 20260507092602 | 16 | 61 | 1.6 | 8.0 | 0.00 | 0.00 | 0.00 | 71 | 1014.1 |
| 20260507092502 | 16 | 21 | 1.6 | 8.0 | 0.00 | 0.00 | 0.00 | 71 | 1014.1 |
| 20260507092404 | 16 | 34 | 1.6 | 8.0 | 0.00 | 0.00 | 0.00 | 73 | 1014.1 |
| 20260507092302 | 16 | 40 | 1.6 | 8.0 | 0.00 | 0.00 | 0.00 | 73 | 1014.1 |
| 20260507092202 | 16 | 355 | 1.6 | 6.4 | 0.00 | 0.00 | 0.00 | 72 | 1014.0 |
| 20260507092103 | 16 | 229 | 1.6 | 4.8 | 0.00 | 0.00 | 0.00 | 72 | 1014.1 |
| 20260507092002 | 16 | 229 | 1.6 | 4.8 | 0.00 | 0.00 | 0.00 | 71 | 1014.1 |
| 20260507091602 | 16 | 233 | 1.6 | 4.8 | 0.00 | 0.00 | 0.00 | 72 | 1014.1 |
| 20260507091419 | 16 | 233 | 1.6 | 4.8 | 0.00 | 0.00 | 0.00 | 73 | 1014.1 |
| 20260507091320 | 16 | 233 | 1.6 | 4.8 | 0.00 | 0.00 | 0.00 | 72 | 1014.0 |
| 20260507091219 | 16 | 261 | 1.6 | 4.8 | 0.00 | 0.00 | 0.00 | 74 | 1014.1 |
| 20260507091121 | 16 | 161 | 1.6 | 3.2 | 0.00 | 0.00 | 0.00 | 74 | 1014.1 |
| 20260507091039 | 16 | 89 | 1.6 | 8.0 | 0.00 | 0.00 | 0.00 | 74 | 1014.0 |
| 20260507090819 | 16 | 89 | 1.6 | 8.0 | 0.00 | 0.00 | 0.00 | 72 | 1014.0 |
| 20260507090721 | 16 | 89 | 3.2 | 8.0 | 0.00 | 0.00 | 0.00 | 73 | 1014.0 |
| 20260507090619 | 16 | 89 | 3.2 | 8.0 | 0.00 | 0.00 | 0.00 | 72 | 1014.0 |
| 20260507090528 | 16 | 89 | 3.2 | 9.7 | 0.00 | 0.00 | 0.00 | 72 | 1014.1 |
| 20260507090418 | 16 | 30 | 3.2 | 9.7 | 0.00 | 0.00 | 0.00 | 72 | 1014.1 |
| 20260507090319 | 16 | 23 | 3.2 | 9.7 | 0.00 | 0.00 | 0.00 | 72 | 1014.0 |
| 20260507090218 | 16 | 22 | 3.2 | 9.7 | 0.00 | 0.00 | 0.00 | 74 | 1014.1 |
| 20260507090041 | 16 | 5 | 3.2 | 9.7 | 0.00 | 0.00 | 0.00 | 73 | 1014.0 |
| 20260507085918 | 16 | 9 | 3.2 | 9.7 | 0.00 | 0.00 | 0.00 | 73 | 1014.0 |
| 20260507085820 | 16 | 9 | 3.2 | 9.7 | 0.00 | 0.00 | 0.00 | 73 | 1014.0 |
| 20260507085720 | 16 | 38 | 3.2 | 9.7 | 0.00 | 0.00 | 0.00 | 73 | 1014.0 |
| 20260507085619 | 16 | 38 | 3.2 | 6.4 | 0.00 | 0.00 | 0.00 | 74 | 1014.1 |
| 20260507085527 | 16 | 38 | 3.2 | 8.0 | 0.00 | 0.00 | 0.00 | 73 | 1013.9 |
| 20260507085421 | 15 | 40 | 3.2 | 8.0 | 0.00 | 0.00 | 0.00 | 75 | 1014.0 |
| 20260507085318 | 16 | 21 | 3.2 | 8.0 | 0.00 | 0.00 | 0.00 | 75 | 1014.1 |
| 20260507085220 | 15 | 17 | 3.2 | 8.0 | 0.00 | 0.00 | 0.00 | 75 | 1013.9 |
| 20260507085119 | 15 | 17 | 3.2 | 8.0 | 0.00 | 0.00 | 0.00 | 75 | 1014.1 |
| 20260507085037 | 15 | 17 | 3.2 | 8.0 | 0.00 | 0.00 | 0.00 | 74 | 1014.0 |
| 20260507084918 | 15 | 355 | 3.2 | 8.0 | 0.00 | 0.00 | 0.00 | 74 | 1014.0 |
| 20260507084820 | 15 | 355 | 3.2 | 8.0 | 0.00 | 0.00 | 0.00 | 74 | 1014.2 |
| 20260507084720 | 15 | 321 | 3.2 | 8.0 | 0.00 | 0.00 | 0.00 | 74 | 1014.0 |
| 20260507084618 | 15 | 27 | 3.2 | 9.7 | 0.00 | 0.00 | 0.00 | 74 | 1014.1 |
| 20260507084526 | 15 | 25 | 1.6 | 9.7 | 0.00 | 0.00 | 0.00 | 74 | 1014.1 |
| 20260507084318 | 16 | 14 | 1.6 | 9.7 | 0.00 | 0.00 | 0.00 | 74 | 1014.1 |
| 20260507084220 | 15 | 15 | 1.6 | 9.7 | 0.00 | 0.00 | 0.00 | 75 | 1014.0 |
| 20260507084118 | 15 | 36 | 1.6 | 9.7 | 0.00 | 0.00 | 0.00 | 75 | 1014.1 |
| 20260507084037 | 15 | 37 | 1.6 | 9.7 | 0.00 | 0.00 | 0.00 | 74 | 1014.0 |
| 20260507083920 | 15 | 37 | 1.6 | 9.7 | 0.00 | 0.00 | 0.00 | 74 | 1014.0 |
| 20260507083820 | 15 | 46 | 1.6 | 9.7 | 0.00 | 0.00 | 0.00 | 74 | 1014.1 |
| 20260507083720 | 15 | 5 | 1.6 | 4.8 | 0.00 | 0.00 | 0.00 | 75 | 1014.1 |
| 20260507083619 | 15 | 350 | 1.6 | 4.8 | 0.00 | 0.00 | 0.00 | 74 | 1014.0 |
| 20260507083528 | 15 | 258 | 1.6 | 4.8 | 0.00 | 0.00 | 0.00 | 74 | 1013.9 |
| 20260507083318 | 15 | 262 | 1.6 | 4.8 | 0.00 | 0.00 | 0.00 | 74 | 1013.9 |
| 20260507083218 | 15 | 267 | 1.6 | 4.8 | 0.00 | 0.00 | 0.00 | 73 | 1013.8 |
| 20260507083122 | 15 | 267 | 1.6 | 4.8 | 0.00 | 0.00 | 0.00 | 73 | 1013.9 |
| 20260507082918 | 15 | 333 | 1.6 | 4.8 | 0.00 | 0.00 | 0.00 | 74 | 1013.9 |
| 20260507082820 | 15 | 332 | 1.6 | 4.8 | 0.00 | 0.00 | 0.00 | 75 | 1014.0 |
| 20260507082721 | 15 | 329 | 1.6 | 4.8 | 0.00 | 0.00 | 0.00 | 74 | 1014.0 |
| 20260507082618 | 15 | 355 | 3.2 | 4.8 | 0.00 | 0.00 | 0.00 | 74 | 1014.0 |
| 20260507082526 | 15 | 355 | 3.2 | 4.8 | 0.00 | 0.00 | 0.00 | 73 | 1013.9 |
| 20260507082421 | 15 | 355 | 3.2 | 8.0 | 0.00 | 0.00 | 0.00 | 74 | 1013.8 |
| 20260507082318 | 15 | 355 | 3.2 | 8.0 | 0.00 | 0.00 | 0.00 | 74 | 1013.8 |
| 20260507082118 | 15 | 13 | 3.2 | 8.0 | 0.00 | 0.00 | 0.00 | 74 | 1013.9 |
| 20260507082037 | 15 | 340 | 3.2 | 8.0 | 0.00 | 0.00 | 0.00 | 74 | 1013.9 |
| 20260507081719 | 15 | 308 | 4.8 | 9.7 | 0.00 | 0.00 | 0.00 | 74 | 1013.9 |
| 20260507081618 | 16 | 272 | 4.8 | 9.7 | 0.00 | 0.00 | 0.00 | 74 | 1013.8 |
| 20260507081526 | 16 | 300 | 3.2 | 9.7 | 0.00 | 0.00 | 0.00 | 74 | 1013.9 |
| 20260507081421 | 16 | 217 | 4.8 | 9.7 | 0.00 | 0.00 | 0.00 | 74 | 1013.8 |
| 20260507081319 | 16 | 229 | 3.2 | 9.7 | 0.00 | 0.00 | 0.00 | 74 | 1013.8 |
| 20260507081220 | 15 | 321 | 4.8 | 9.7 | 0.00 | 0.00 | 0.00 | 73 | 1013.9 |
| 20260507081118 | 16 | 340 | 4.8 | 9.7 | 0.00 | 0.00 | 0.00 | 74 | 1013.9 |
| 20260507081037 | 16 | 342 | 4.8 | 9.7 | 0.00 | 0.00 | 0.00 | 75 | 1013.9 |
| 20260507080919 | 15 | 121 | 4.8 | 9.7 | 0.00 | 0.00 | 0.00 | 74 | 1013.8 |
| 20260507080820 | 15 | 70 | 4.8 | 9.7 | 0.00 | 0.00 | 0.00 | 75 | 1013.9 |
| 20260507080720 | 15 | 60 | 4.8 | 9.7 | 0.00 | 0.00 | 0.00 | 75 | 1013.9 |
| 20260507080618 | 15 | 58 | 4.8 | 9.7 | 0.00 | 0.00 | 0.00 | 74 | 1013.8 |
| 20260507080526 | 15 | 61 | 4.8 | 9.7 | 0.00 | 0.00 | 0.00 | 74 | 1013.9 |
| 20260507080218 | 15 | 41 | 6.4 | 8.0 | 0.00 | 0.00 | 0.00 | 75 | 1013.7 |
| 20260507080121 | 15 | 59 | 6.4 | 8.0 | 0.00 | 0.00 | 0.00 | 76 | 1013.8 |
| 20260507080042 | 15 | 64 | 6.4 | 8.0 | 0.00 | 0.00 | 0.00 | 76 | 1013.7 |
| 20260507075918 | 15 | 58 | 6.4 | 9.7 | 0.00 | 0.28 | 0.00 | 76 | 1013.8 |
| 20260507075722 | 15 | 360 | 6.4 | 9.7 | 0.00 | 0.28 | 0.00 | 75 | 1013.8 |
| 20260507075618 | 15 | 64 | 6.4 | 9.7 | 0.00 | 0.28 | 0.00 | 76 | 1013.9 |
| 20260507075419 | 15 | 29 | 4.8 | 12.9 | 0.00 | 0.28 | 0.00 | 76 | 1013.8 |
| 20260507075320 | 15 | 59 | 4.8 | 12.9 | 0.00 | 0.28 | 0.00 | 77 | 1013.8 |
| 20260507075218 | 15 | 53 | 4.8 | 12.9 | 0.00 | 0.28 | 0.00 | 75 | 1013.8 |
| 20260507074820 | 15 | 44 | 4.8 | 12.9 | 0.00 | 0.28 | 0.00 | 75 | 1014.0 |
| 20260507074718 | 15 | 27 | 4.8 | 12.9 | 0.00 | 0.28 | 0.00 | 76 | 1013.7 |
| 20260507074528 | 15 | 42 | 4.8 | 12.9 | 0.00 | 0.28 | 0.00 | 76 | 1013.9 |
| 20260507074418 | 15 | 59 | 4.8 | 12.9 | 0.00 | 0.28 | 0.00 | 76 | 1013.8 |
| 20260507074320 | 15 | 46 | 4.8 | 12.9 | 0.00 | 0.28 | 0.00 | 76 | 1013.8 |
| 20260507074218 | 15 | 47 | 4.8 | 12.9 | 0.00 | 0.28 | 0.00 | 75 | 1013.9 |
| 20260507074119 | 15 | 9 | 4.8 | 12.9 | 0.00 | 0.28 | 0.00 | 75 | 1013.9 |
| 20260507073920 | 15 | 35 | 4.8 | 12.9 | 0.00 | 0.28 | 0.00 | 75 | 1014.0 |
| 20260507073819 | 15 | 43 | 4.8 | 8.0 | 0.00 | 0.28 | 0.00 | 76 | 1013.8 |
| 20260507073719 | 15 | 28 | 4.8 | 9.7 | 0.00 | 0.28 | 0.00 | 77 | 1013.8 |
| 20260507073619 | 15 | 42 | 4.8 | 9.7 | 0.00 | 0.28 | 0.00 | 78 | 1013.9 |
| 20260507073528 | 15 | 42 | 4.8 | 9.7 | 0.00 | 0.28 | 0.00 | 79 | 1013.9 |
| 20260507073419 | 15 | 76 | 4.8 | 9.7 | 0.00 | 0.28 | 0.00 | 78 | 1013.8 |
| 20260507073320 | 15 | 81 | 4.8 | 9.7 | 0.00 | 0.28 | 0.00 | 77 | 1013.8 |
| 20260507073218 | 15 | 82 | 4.8 | 9.7 | 0.00 | 0.28 | 0.00 | 78 | 1013.9 |
| 20260507073120 | 14 | 59 | 4.8 | 9.7 | 0.00 | 0.28 | 0.00 | 78 | 1013.9 |
| 20260507073035 | 14 | 51 | 4.8 | 9.7 | 0.00 | 0.28 | 0.00 | 78 | 1013.9 |
| 20260507072920 | 14 | 45 | 4.8 | 9.7 | 0.00 | 0.28 | 0.00 | 78 | 1013.8 |
| 20260507072618 | 14 | 65 | 4.8 | 9.7 | 0.00 | 0.28 | 0.00 | 80 | 1013.8 |
| 20260507072529 | 14 | 59 | 4.8 | 9.7 | 0.00 | 0.28 | 0.00 | 80 | 1013.8 |
| 20260507072419 | 14 | 61 | 4.8 | 9.7 | 0.00 | 0.28 | 0.00 | 79 | 1013.7 |
| 20260507072319 | 13 | 62 | 4.8 | 9.7 | 0.00 | 0.28 | 0.00 | 79 | 1013.8 |
| 20260507072221 | 13 | 34 | 4.8 | 9.7 | 0.00 | 0.28 | 0.00 | 78 | 1013.7 |
| 20260507072038 | 14 | 63 | 4.8 | 8.0 | 0.00 | 0.28 | 0.00 | 77 | 1013.7 |
| 20260507071820 | 14 | 53 | 4.8 | 6.4 | 0.00 | 0.28 | 0.00 | 77 | 1013.7 |
| 20260507071718 | 14 | 41 | 3.2 | 6.4 | 0.00 | 0.28 | 0.00 | 77 | 1013.7 |
| 20260507071618 | 14 | 51 | 3.2 | 6.4 | 0.00 | 0.28 | 0.00 | 77 | 1013.7 |
| 20260507071530 | 14 | 65 | 3.2 | 6.4 | 0.00 | 0.28 | 0.00 | 76 | 1013.7 |
| 20260507071320 | 14 | 70 | 1.6 | 4.8 | 0.00 | 0.28 | 0.00 | 78 | 1013.7 |
| 20260507071119 | 14 | 72 | 1.6 | 4.8 | 0.00 | 0.28 | 0.00 | 77 | 1013.7 |
| 20260507071035 | 14 | 72 | 1.6 | 4.8 | 0.00 | 0.28 | 0.00 | 77 | 1013.6 |
| 20260507070920 | 14 | 70 | 0.0 | 4.8 | 0.00 | 0.28 | 0.00 | 78 | 1013.7 |
| 20260507070819 | 14 | 71 | 0.0 | 4.8 | 0.00 | 0.28 | 0.00 | 79 | 1013.6 |
| 20260507070718 | 14 | 73 | 0.0 | 4.8 | 0.00 | 0.28 | 0.00 | 79 | 1013.7 |
| 20260507070619 | 14 | 84 | 1.6 | 4.8 | 0.00 | 0.28 | 0.00 | 80 | 1013.7 |
| 20260507070529 | 14 | 86 | 1.6 | 4.8 | 0.00 | 0.28 | 0.00 | 81 | 1013.6 |
| 20260507070420 | 14 | 88 | 1.6 | 4.8 | 0.00 | 0.28 | 0.00 | 81 | 1013.6 |
| 20260507070318 | 13 | 88 | 1.6 | 4.8 | 0.00 | 0.28 | 0.00 | 80 | 1013.6 |
| 20260507070219 | 13 | 88 | 3.2 | 6.4 | 0.00 | 0.28 | 0.00 | 81 | 1013.6 |
| 20260507070120 | 13 | 88 | 3.2 | 6.4 | 0.00 | 0.28 | 0.00 | 81 | 1013.6 |
| 20260507070040 | 13 | 77 | 3.2 | 6.4 | 0.00 | 0.28 | 0.00 | 80 | 1013.7 |
| 20260507065919 | 13 | 68 | 3.2 | 6.4 | 0.00 | 0.28 | 0.00 | 81 | 1013.6 |
| 20260507065819 | 13 | 63 | 3.2 | 6.4 | 0.00 | 0.28 | 0.00 | 81 | 1013.6 |
| 20260507065718 | 13 | 60 | 3.2 | 6.4 | 0.00 | 0.28 | 0.00 | 81 | 1013.6 |
| 20260507065621 | 13 | 59 | 3.2 | 6.4 | 0.00 | 0.28 | 0.00 | 81 | 1013.6 |
| 20260507065418 | 13 | 57 | 3.2 | 6.4 | 0.00 | 0.28 | 0.00 | 81 | 1013.5 |
| 20260507065319 | 13 | 56 | 3.2 | 6.4 | 0.00 | 0.28 | 0.00 | 82 | 1013.6 |
| 20260507065120 | 13 | 65 | 3.2 | 6.4 | 0.00 | 0.28 | 0.00 | 82 | 1013.5 |
| 20260507065043 | 13 | 80 | 3.2 | 4.8 | 0.00 | 0.28 | 0.00 | 82 | 1013.6 |
| 20260507064918 | 13 | 92 | 3.2 | 4.8 | 0.00 | 0.28 | 0.00 | 82 | 1013.6 |
| 20260507064719 | 13 | 98 | 3.2 | 4.8 | 0.00 | 0.28 | 0.00 | 82 | 1013.6 |
| 20260507064619 | 13 | 107 | 3.2 | 4.8 | 0.00 | 0.28 | 0.00 | 82 | 1013.6 |
| 20260507064527 | 12 | 111 | 1.6 | 4.8 | 0.00 | 0.28 | 0.00 | 82 | 1013.6 |
| 20260507064319 | 12 | 134 | 1.6 | 4.8 | 0.00 | 0.28 | 0.00 | 82 | 1013.6 |
| 20260507064219 | 12 | 146 | 1.6 | 4.8 | 0.00 | 0.28 | 0.00 | 82 | 1013.6 |
| 20260507064118 | 12 | 150 | 1.6 | 4.8 | 0.00 | 0.28 | 0.00 | 82 | 1013.5 |
| 20260507064038 | 12 | 160 | 0.0 | 4.8 | 0.00 | 0.28 | 0.00 | 82 | 1013.7 |
| 20260507063920 | 12 | 167 | 0.0 | 4.8 | 0.00 | 0.28 | 0.00 | 83 | 1013.7 |
| 20260507063818 | 12 | 249 | 0.0 | 1.6 | 0.00 | 0.28 | 0.00 | 82 | 1013.7 |
| 20260507063621 | 12 | 249 | 0.0 | 1.6 | 0.00 | 0.28 | 0.00 | 81 | 1013.5 |
| 20260507063527 | 12 | 249 | 0.0 | 3.2 | 0.00 | 0.28 | 0.00 | 82 | 1013.5 |
| 20260507063219 | 12 | 249 | 0.0 | 3.2 | 0.00 | 0.28 | 0.00 | 85 | 1013.6 |
| 20260507063118 | 12 | 249 | 0.0 | 3.2 | 0.00 | 0.28 | 0.00 | 85 | 1013.5 |
| 20260507063036 | 12 | 249 | 0.0 | 3.2 | 0.00 | 0.28 | 0.00 | 86 | 1013.5 |
| 20260507062920 | 12 | 249 | 0.0 | 3.2 | 0.00 | 0.28 | 0.00 | 85 | 1013.5 |
| 20260507062818 | 11 | 249 | 0.0 | 3.2 | 0.00 | 0.28 | 0.00 | 87 | 1013.5 |
| 20260507062721 | 11 | 247 | 0.0 | 3.2 | 0.00 | 0.28 | 0.00 | 88 | 1013.4 |
| 20260507062528 | 11 | 245 | 0.0 | 0.0 | 0.00 | 0.28 | 0.00 | 87 | 1013.5 |
| 20260507062418 | 11 | 245 | 0.0 | 0.0 | 0.00 | 0.28 | 0.00 | 87 | 1013.5 |
| 20260507062320 | 11 | 245 | 0.0 | 0.0 | 0.00 | 0.28 | 0.00 | 88 | 1013.5 |
| 20260507062219 | 11 | 245 | 0.0 | 0.0 | 0.00 | 0.28 | 0.00 | 88 | 1013.5 |
| 20260507062120 | 11 | 245 | 0.0 | 0.0 | 0.00 | 0.28 | 0.00 | 89 | 1013.5 |
| 20260507062036 | 11 | 245 | 0.0 | 0.0 | 0.00 | 0.28 | 0.00 | 89 | 1013.5 |
| 20260507061920 | 11 | 245 | 0.0 | 1.6 | 0.00 | 0.28 | 0.00 | 90 | 1013.5 |
| 20260507061818 | 11 | 245 | 0.0 | 1.6 | 0.00 | 0.28 | 0.00 | 90 | 1013.5 |
| 20260507061720 | 10 | 245 | 0.0 | 1.6 | 0.00 | 0.28 | 0.00 | 91 | 1013.5 |
| 20260507061604 | 10 | 245 | 0.0 | 1.6 | 0.00 | 0.28 | 0.00 | 92 | 1013.5 |
| 20260507061409 | 10 | 245 | 0.0 | 3.2 | 0.00 | 0.28 | 0.00 | 92 | 1013.5 |
| 20260507061321 | 10 | 245 | 1.6 | 3.2 | 0.00 | 0.28 | 0.00 | 92 | 1013.5 |
| 20260507061219 | 10 | 245 | 1.6 | 4.8 | 0.00 | 0.28 | 0.00 | 92 | 1013.5 |
| 20260507061004 | 10 | 66 | 1.6 | 4.8 | 0.00 | 0.28 | 0.00 | 93 | 1013.5 |
| 20260507060907 | 10 | 66 | 1.6 | 4.8 | 0.00 | 0.28 | 0.00 | 93 | 1013.5 |
| 20260507060818 | 9 | 66 | 1.6 | 4.8 | 0.00 | 0.28 | 0.00 | 93 | 1013.4 |
| 20260507060721 | 9 | 66 | 1.6 | 4.8 | 0.00 | 0.28 | 0.00 | 93 | 1013.5 |
| 20260507060619 | 9 | 66 | 1.6 | 4.8 | 0.00 | 0.28 | 0.00 | 93 | 1013.5 |
| 20260507060527 | 9 | 66 | 1.6 | 4.8 | 0.00 | 0.28 | 0.00 | 93 | 1013.5 |
| 20260507060419 | 9 | 64 | 1.6 | 4.8 | 0.00 | 0.28 | 0.00 | 93 | 1013.4 |
| 20260507060219 | 9 | 64 | 1.6 | 3.2 | 0.00 | 0.28 | 0.00 | 93 | 1013.4 |
| 20260507060119 | 9 | 64 | 1.6 | 3.2 | 0.00 | 0.28 | 0.00 | 94 | 1013.4 |
| 20260507060040 | 9 | 64 | 1.6 | 3.2 | 0.00 | 0.28 | 0.00 | 94 | 1013.3 |
| 20260507055922 | 8 | 64 | 1.6 | 3.2 | 0.00 | 0.28 | 0.00 | 94 | 1013.4 |
| 20260507055822 | 8 | 65 | 0.0 | 3.2 | 0.00 | 0.28 | 0.00 | 95 | 1013.4 |
| 20260507055618 | 8 | 65 | 0.0 | 1.6 | 0.00 | 0.28 | 0.00 | 95 | 1013.4 |
| 20260507055528 | 8 | 65 | 0.0 | 1.6 | 0.00 | 0.28 | 0.00 | 95 | 1013.3 |
| 20260507055421 | 8 | 65 | 0.0 | 1.6 | 0.00 | 0.28 | 0.00 | 96 | 1013.3 |
| 20260507055318 | 8 | 65 | 0.0 | 1.6 | 0.00 | 0.28 | 0.00 | 96 | 1013.3 |
| 20260507055221 | 8 | 65 | 0.0 | 1.6 | 0.00 | 0.28 | 0.00 | 96 | 1013.3 |
| 20260507055119 | 8 | 65 | 0.0 | 1.6 | 0.00 | 0.28 | 0.00 | 96 | 1013.4 |
| 20260507055036 | 8 | 65 | 0.0 | 1.6 | 0.00 | 0.28 | 0.00 | 96 | 1013.3 |
| 20260507054820 | 8 | 65 | 0.0 | 1.6 | 0.00 | 0.28 | 0.00 | 96 | 1013.3 |
| 20260507054719 | 8 | 115 | 0.0 | 1.6 | 0.00 | 0.28 | 0.00 | 96 | 1013.2 |
| 20260507054619 | 8 | 115 | 0.0 | 1.6 | 0.00 | 0.28 | 0.00 | 96 | 1013.2 |
| 20260507054526 | 8 | 115 | 1.6 | 3.2 | 0.00 | 0.28 | 0.00 | 96 | 1013.2 |
| 20260507054421 | 7 | 115 | 1.6 | 3.2 | 0.00 | 0.28 | 0.00 | 96 | 1013.2 |
| 20260507054303 | 7 | 115 | 1.6 | 3.2 | 0.00 | 0.28 | 0.00 | 96 | 1013.2 |
| 20260507054202 | 7 | 115 | 1.6 | 3.2 | 0.00 | 0.28 | 0.00 | 96 | 1013.1 |
| 20260507054101 | 7 | 115 | 1.6 | 3.2 | 0.00 | 0.28 | 0.00 | 96 | 1013.2 |
| 20260507054002 | 7 | 115 | 1.6 | 3.2 | 0.00 | 0.28 | 0.00 | 96 | 1013.2 |
| 20260507053802 | 7 | 116 | 0.0 | 3.2 | 0.00 | 0.28 | 0.00 | 97 | 1013.1 |
| 20260507053703 | 7 | 116 | 0.0 | 3.2 | 0.00 | 0.28 | 0.00 | 97 | 1013.2 |
| 20260507053503 | 7 | 117 | 0.0 | 3.2 | 0.00 | 0.28 | 0.00 | 97 | 1013.1 |
| 20260507053301 | 7 | 196 | 0.0 | 1.6 | 0.00 | 0.28 | 0.00 | 97 | 1013.2 |
| 20260507053201 | 7 | 196 | 0.0 | 1.6 | 0.00 | 0.28 | 0.00 | 97 | 1013.1 |
| 20260507053104 | 6 | 196 | 0.0 | 1.6 | 0.00 | 0.28 | 0.00 | 97 | 1013.2 |
| 20260507053003 | 6 | 196 | 0.0 | 1.6 | 0.00 | 0.28 | 0.00 | 97 | 1013.2 |
| 20260507052901 | 6 | 196 | 0.0 | 1.6 | 0.00 | 0.28 | 0.00 | 96 | 1013.2 |
| 20260507052803 | 6 | 196 | 0.0 | 1.6 | 0.00 | 0.28 | 0.00 | 97 | 1013.0 |
| 20260507052703 | 6 | 196 | 0.0 | 1.6 | 0.00 | 0.28 | 0.00 | 96 | 1013.0 |
| 20260507052601 | 6 | 196 | 0.0 | 1.6 | 0.00 | 0.28 | 0.00 | 97 | 1013.2 |
| 20260507052502 | 6 | 198 | 0.0 | 1.6 | 0.00 | 0.28 | 0.00 | 96 | 1013.2 |
| 20260507052404 | 6 | 198 | 0.0 | 0.0 | 0.00 | 0.28 | 0.00 | 97 | 1013.1 |
| 20260507052301 | 6 | 198 | 0.0 | 0.0 | 0.00 | 0.28 | 0.00 | 96 | 1013.2 |
| 20260507052201 | 6 | 198 | 0.0 | 0.0 | 0.00 | 0.28 | 0.00 | 96 | 1013.0 |
| 20260507052004 | 5 | 198 | 0.0 | 0.0 | 0.00 | 0.28 | 0.00 | 96 | 1013.1 |
| 20260507051901 | 5 | 198 | 0.0 | 0.0 | 0.00 | 0.28 | 0.00 | 96 | 1013.1 |
| 20260507051801 | 5 | 198 | 0.0 | 0.0 | 0.00 | 0.28 | 0.00 | 96 | 1013.0 |
| 20260507051703 | 5 | 198 | 0.0 | 0.0 | 0.00 | 0.28 | 0.00 | 96 | 1013.0 |
| 20260507051601 | 5 | 198 | 0.0 | 0.0 | 0.00 | 0.28 | 0.00 | 96 | 1013.1 |
| 20260507051501 | 5 | 198 | 0.0 | 0.0 | 0.00 | 0.28 | 0.00 | 96 | 1012.9 |
| 20260507051403 | 5 | 198 | 0.0 | 0.0 | 0.00 | 0.28 | 0.00 | 96 | 1013.0 |
| 20260507051303 | 5 | 198 | 0.0 | 0.0 | 0.00 | 0.28 | 0.00 | 96 | 1013.0 |
| 20260507051201 | 5 | 198 | 0.0 | 0.0 | 0.00 | 0.28 | 0.00 | 96 | 1012.9 |
| 20260507050902 | 5 | 198 | 0.0 | 0.0 | 0.00 | 0.28 | 0.00 | 96 | 1013.0 |
| 20260507050801 | 5 | 198 | 0.0 | 3.2 | 0.00 | 0.28 | 0.00 | 96 | 1012.9 |
| 20260507050701 | 4 | 198 | 0.0 | 3.2 | 0.00 | 0.28 | 0.00 | 96 | 1013.0 |
| 20260507050604 | 4 | 198 | 1.6 | 3.2 | 0.00 | 0.28 | 0.00 | 96 | 1012.9 |
| 20260507050501 | 4 | 198 | 1.6 | 3.2 | 0.00 | 0.28 | 0.00 | 96 | 1012.8 |
| 20260507050303 | 4 | 198 | 1.6 | 3.2 | 0.00 | 0.28 | 0.00 | 96 | 1013.0 |
| 20260507050203 | 4 | 198 | 1.6 | 3.2 | 0.00 | 0.28 | 0.00 | 95 | 1012.9 |
| 20260507050006 | 3 | 198 | 1.6 | 3.2 | 0.00 | 0.28 | 0.00 | 95 | 1013.0 |
| 20260507045903 | 3 | 198 | 1.6 | 3.2 | 0.00 | 0.30 | 0.00 | 95 | 1012.9 |
| 20260507045801 | 3 | 198 | 0.0 | 3.2 | 0.00 | 0.30 | 0.00 | 95 | 1012.9 |
| 20260507045701 | 3 | 198 | 0.0 | 3.2 | 0.00 | 0.30 | 0.00 | 95 | 1012.8 |
| 20260507045603 | 3 | 198 | 0.0 | 3.2 | 0.00 | 0.30 | 0.00 | 95 | 1012.8 |
| 20260507045502 | 3 | 198 | 0.0 | 3.2 | 0.00 | 0.30 | 0.00 | 95 | 1012.9 |
| 20260507045401 | 3 | 198 | 0.0 | 3.2 | 0.00 | 0.30 | 0.00 | 95 | 1012.8 |
| 20260507045301 | 3 | 198 | 0.0 | 0.0 | 0.00 | 0.30 | 0.00 | 95 | 1012.8 |
| 20260507045204 | 3 | 198 | 0.0 | 0.0 | 0.00 | 0.30 | 0.00 | 95 | 1012.8 |
| 20260507045002 | 3 | 198 | 0.0 | 0.0 | 0.00 | 0.30 | 0.00 | 95 | 1012.7 |
| 20260507044901 | 3 | 198 | 0.0 | 0.0 | 0.00 | 0.30 | 0.00 | 95 | 1012.7 |
| 20260507044804 | 3 | 198 | 0.0 | 0.0 | 0.00 | 0.30 | 0.00 | 95 | 1012.7 |
| 20260507044601 | 3 | 198 | 0.0 | 0.0 | 0.00 | 0.30 | 0.00 | 95 | 1012.7 |
| 20260507044502 | 3 | 198 | 0.0 | 0.0 | 0.00 | 0.30 | 0.00 | 95 | 1012.8 |
| 20260507044404 | 3 | 198 | 0.0 | 0.0 | 0.00 | 0.30 | 0.00 | 95 | 1012.7 |
| 20260507044301 | 3 | 198 | 0.0 | 0.0 | 0.00 | 0.30 | 0.00 | 95 | 1012.8 |
| 20260507044201 | 3 | 198 | 0.0 | 0.0 | 0.00 | 0.30 | 0.00 | 95 | 1012.6 |
| 20260507044103 | 3 | 198 | 0.0 | 0.0 | 0.00 | 0.30 | 0.00 | 95 | 1012.7 |
| 20260507044002 | 3 | 198 | 0.0 | 0.0 | 0.00 | 0.30 | 0.00 | 95 | 1012.6 |
| 20260507043902 | 3 | 198 | 0.0 | 0.0 | 0.00 | 0.30 | 0.00 | 95 | 1012.6 |
| 20260507043704 | 3 | 198 | 0.0 | 0.0 | 0.00 | 0.30 | 0.00 | 95 | 1012.6 |
| 20260507043602 | 3 | 198 | 0.0 | 0.0 | 0.00 | 0.30 | 0.00 | 95 | 1012.5 |
| 20260507043403 | 3 | 198 | 0.0 | 0.0 | 0.00 | 0.30 | 0.00 | 95 | 1012.6 |
| 20260507043202 | 3 | 198 | 0.0 | 0.0 | 0.00 | 0.30 | 0.00 | 95 | 1012.6 |
| 20260507043101 | 3 | 198 | 0.0 | 0.0 | 0.00 | 0.30 | 0.00 | 95 | 1012.6 |
| 20260507042901 | 3 | 198 | 0.0 | 0.0 | 0.00 | 0.30 | 0.00 | 95 | 1012.6 |
| 20260507042801 | 3 | 198 | 0.0 | 0.0 | 0.00 | 0.30 | 0.00 | 95 | 1012.5 |
| 20260507042701 | 3 | 198 | 0.0 | 0.0 | 0.00 | 0.30 | 0.00 | 95 | 1012.6 |
| 20260507042501 | 3 | 198 | 0.0 | 0.0 | 0.00 | 0.30 | 0.00 | 95 | 1012.4 |
| 20260507042401 | 3 | 198 | 0.0 | 0.0 | 0.00 | 0.30 | 0.00 | 95 | 1012.5 |
| 20260507042204 | 3 | 198 | 0.0 | 0.0 | 0.00 | 0.30 | 0.00 | 95 | 1012.4 |
| 20260507042002 | 3 | 198 | 0.0 | 0.0 | 0.00 | 0.30 | 0.00 | 95 | 1012.4 |
| 20260507041901 | 3 | 198 | 0.0 | 0.0 | 0.00 | 0.30 | 0.00 | 95 | 1012.4 |
| 20260507041803 | 3 | 198 | 0.0 | 0.0 | 0.00 | 0.30 | 0.00 | 95 | 1012.4 |
| 20260507041701 | 3 | 198 | 0.0 | 0.0 | 0.00 | 0.30 | 0.00 | 95 | 1012.4 |
| 20260507041601 | 3 | 198 | 0.0 | 0.0 | 0.00 | 0.30 | 0.00 | 95 | 1012.3 |
| 20260507041501 | 3 | 198 | 0.0 | 0.0 | 0.00 | 0.30 | 0.00 | 95 | 1012.4 |
| 20260507041404 | 3 | 198 | 0.0 | 0.0 | 0.00 | 0.30 | 0.00 | 95 | 1012.3 |
| 20260507041301 | 3 | 198 | 0.0 | 0.0 | 0.00 | 0.30 | 0.00 | 95 | 1012.3 |
| 20260507041202 | 3 | 198 | 0.0 | 0.0 | 0.00 | 0.30 | 0.00 | 95 | 1012.3 |
| 20260507041101 | 3 | 198 | 0.0 | 0.0 | 0.00 | 0.30 | 0.00 | 95 | 1012.4 |
| 20260507041005 | 3 | 198 | 0.0 | 0.0 | 0.00 | 0.30 | 0.00 | 95 | 1012.3 |
| 20260507040902 | 3 | 198 | 0.0 | 0.0 | 0.00 | 0.30 | 0.00 | 95 | 1012.2 |
| 20260507040801 | 3 | 198 | 0.0 | 0.0 | 0.00 | 0.30 | 0.00 | 95 | 1012.3 |
| 20260507040703 | 3 | 198 | 0.0 | 0.0 | 0.00 | 0.30 | 0.00 | 95 | 1012.3 |
| 20260507040501 | 3 | 198 | 0.0 | 0.0 | 0.00 | 0.30 | 0.00 | 95 | 1012.3 |
| 20260507040403 | 3 | 198 | 0.0 | 0.0 | 0.00 | 0.30 | 0.00 | 95 | 1012.3 |
| 20260507040202 | 3 | 198 | 0.0 | 0.0 | 0.00 | 0.30 | 0.00 | 95 | 1012.3 |
| 20260507040008 | 3 | 198 | 0.0 | 0.0 | 0.00 | 0.30 | 0.00 | 95 | 1012.3 |
| 20260507035903 | 3 | 198 | 0.0 | 0.0 | 0.00 | 0.43 | 0.00 | 95 | 1012.4 |
| 20260507035702 | 3 | 198 | 0.0 | 0.0 | 0.00 | 0.43 | 0.00 | 95 | 1012.2 |
| 20260507035602 | 3 | 198 | 0.0 | 0.0 | 0.00 | 0.43 | 0.00 | 95 | 1012.4 |
| 20260507035502 | 3 | 198 | 0.0 | 0.0 | 0.00 | 0.43 | 0.00 | 95 | 1012.4 |
| 20260507035404 | 3 | 198 | 0.0 | 0.0 | 0.00 | 0.43 | 0.00 | 95 | 1012.3 |
| 20260507035203 | 3 | 198 | 0.0 | 0.0 | 0.00 | 0.43 | 0.00 | 95 | 1012.4 |
| 20260507035101 | 3 | 198 | 0.0 | 0.0 | 0.00 | 0.43 | 0.00 | 95 | 1012.3 |
| 20260507035002 | 3 | 198 | 0.0 | 0.0 | 0.00 | 0.43 | 0.00 | 95 | 1012.3 |
| 20260507034902 | 3 | 198 | 0.0 | 0.0 | 0.00 | 0.43 | 0.00 | 95 | 1012.4 |
| 20260507034804 | 3 | 198 | 0.0 | 0.0 | 0.00 | 0.43 | 0.00 | 95 | 1012.3 |
| 20260507034702 | 3 | 198 | 0.0 | 0.0 | 0.00 | 0.43 | 0.00 | 95 | 1012.3 |
| 20260507034601 | 3 | 197 | 0.0 | 0.0 | 0.00 | 0.43 | 0.00 | 95 | 1012.3 |
| 20260507034502 | 3 | 197 | 0.0 | 0.0 | 0.00 | 0.43 | 0.00 | 95 | 1012.2 |
| 20260507034404 | 3 | 197 | 0.0 | 0.0 | 0.00 | 0.43 | 0.00 | 95 | 1012.4 |
| 20260507034301 | 3 | 197 | 0.0 | 0.0 | 0.00 | 0.43 | 0.00 | 95 | 1012.1 |
| 20260507034203 | 3 | 197 | 0.0 | 0.0 | 0.00 | 0.43 | 0.00 | 95 | 1012.1 |
| 20260507034102 | 3 | 197 | 0.0 | 0.0 | 0.00 | 0.43 | 0.00 | 95 | 1012.1 |
| 20260507034002 | 3 | 197 | 0.0 | 0.0 | 0.00 | 0.43 | 0.00 | 95 | 1012.2 |
| 20260507033803 | 3 | 197 | 0.0 | 0.0 | 0.00 | 0.43 | 0.00 | 95 | 1012.3 |
| 20260507033702 | 3 | 197 | 0.0 | 0.0 | 0.00 | 0.43 | 0.00 | 95 | 1012.2 |
| 20260507033501 | 3 | 197 | 0.0 | 0.0 | 0.00 | 0.43 | 0.00 | 95 | 1012.2 |
| 20260507033404 | 3 | 197 | 0.0 | 0.0 | 0.00 | 0.43 | 0.00 | 95 | 1012.2 |
| 20260507033301 | 3 | 197 | 0.0 | 0.0 | 0.00 | 0.43 | 0.00 | 95 | 1012.3 |
| 20260507033103 | 3 | 197 | 0.0 | 0.0 | 0.00 | 0.43 | 0.00 | 95 | 1012.1 |
| 20260507033002 | 3 | 197 | 0.0 | 0.0 | 0.00 | 0.43 | 0.00 | 95 | 1012.1 |
| 20260507032901 | 3 | 197 | 0.0 | 0.0 | 0.00 | 0.43 | 0.00 | 95 | 1012.2 |
| 20260507032801 | 3 | 197 | 0.0 | 0.0 | 0.00 | 0.43 | 0.00 | 95 | 1012.1 |
| 20260507032704 | 3 | 197 | 0.0 | 0.0 | 0.00 | 0.43 | 0.00 | 95 | 1012.3 |
| 20260507032601 | 3 | 197 | 0.0 | 0.0 | 0.00 | 0.43 | 0.00 | 95 | 1012.2 |
| 20260507032502 | 3 | 197 | 0.0 | 0.0 | 0.00 | 0.43 | 0.00 | 95 | 1012.1 |
| 20260507032403 | 3 | 197 | 0.0 | 0.0 | 0.00 | 0.43 | 0.00 | 95 | 1012.1 |
| 20260507032102 | 3 | 197 | 0.0 | 0.0 | 0.00 | 0.43 | 0.00 | 95 | 1012.1 |
| 20260507031903 | 3 | 196 | 0.0 | 0.0 | 0.00 | 0.43 | 0.00 | 95 | 1012.1 |
| 20260507031703 | 3 | 196 | 0.0 | 0.0 | 0.00 | 0.43 | 0.00 | 95 | 1012.1 |
| 20260507031602 | 3 | 196 | 0.0 | 0.0 | 0.00 | 0.43 | 0.00 | 95 | 1012.1 |
| 20260507031501 | 3 | 196 | 0.0 | 0.0 | 0.00 | 0.43 | 0.00 | 95 | 1012.1 |
| 20260507031403 | 3 | 196 | 0.0 | 0.0 | 0.00 | 0.43 | 0.00 | 95 | 1012.2 |
| 20260507031302 | 3 | 196 | 0.0 | 0.0 | 0.00 | 0.43 | 0.00 | 95 | 1012.3 |
| 20260507031203 | 3 | 196 | 0.0 | 0.0 | 0.00 | 0.43 | 0.00 | 95 | 1012.3 |
| 20260507031101 | 3 | 196 | 0.0 | 0.0 | 0.00 | 0.43 | 0.00 | 95 | 1012.2 |
| 20260507031002 | 3 | 196 | 0.0 | 0.0 | 0.00 | 0.43 | 0.00 | 95 | 1012.0 |
| 20260507030901 | 3 | 196 | 0.0 | 0.0 | 0.00 | 0.43 | 0.00 | 95 | 1012.0 |
| 20260507030803 | 3 | 196 | 0.0 | 0.0 | 0.00 | 0.43 | 0.00 | 95 | 1012.2 |
| 20260507030601 | 3 | 196 | 0.0 | 0.0 | 0.00 | 0.43 | 0.00 | 95 | 1012.2 |
| 20260507030501 | 3 | 196 | 0.0 | 0.0 | 0.00 | 0.43 | 0.00 | 95 | 1012.1 |
| 20260507030302 | 3 | 196 | 0.0 | 0.0 | 0.00 | 0.43 | 0.00 | 95 | 1012.3 |
| 20260507030201 | 3 | 196 | 0.0 | 0.0 | 0.00 | 0.43 | 0.00 | 95 | 1012.2 |
| 20260507030101 | 3 | 196 | 0.0 | 0.0 | 0.00 | 0.43 | 0.00 | 95 | 1012.3 |
| 20260507030008 | 3 | 196 | 0.0 | 0.0 | 0.00 | 0.43 | 0.00 | 95 | 1012.3 |
| 20260507025901 | 3 | 196 | 0.0 | 0.0 | 0.00 | 0.76 | 0.00 | 95 | 1012.3 |
| 20260507025801 | 3 | 196 | 0.0 | 0.0 | 0.00 | 0.76 | 0.00 | 95 | 1012.2 |
| 20260507025702 | 3 | 196 | 0.0 | 0.0 | 0.00 | 0.76 | 0.00 | 94 | 1012.2 |
| 20260507025502 | 3 | 196 | 0.0 | 0.0 | 0.00 | 0.76 | 0.00 | 94 | 1012.2 |
| 20260507025403 | 3 | 196 | 0.0 | 0.0 | 0.00 | 0.76 | 0.00 | 94 | 1012.1 |
| 20260507025301 | 3 | 196 | 0.0 | 0.0 | 0.00 | 0.76 | 0.00 | 94 | 1012.2 |
| 20260507025203 | 3 | 196 | 0.0 | 0.0 | 0.00 | 0.76 | 0.00 | 95 | 1012.1 |
| 20260507025101 | 3 | 196 | 0.0 | 0.0 | 0.00 | 0.76 | 0.00 | 95 | 1012.2 |
| 20260507024901 | 3 | 196 | 0.0 | 0.0 | 0.00 | 0.76 | 0.00 | 95 | 1012.2 |
| 20260507024702 | 3 | 196 | 0.0 | 0.0 | 0.00 | 0.76 | 0.00 | 95 | 1012.2 |
| 20260507024601 | 3 | 196 | 0.0 | 0.0 | 0.00 | 0.76 | 0.00 | 95 | 1012.1 |
| 20260507024404 | 3 | 196 | 0.0 | 0.0 | 0.00 | 0.76 | 0.00 | 95 | 1012.1 |
| 20260507024302 | 3 | 196 | 0.0 | 0.0 | 0.00 | 0.76 | 0.00 | 95 | 1012.1 |
| 20260507024202 | 3 | 196 | 0.0 | 0.0 | 0.00 | 0.76 | 0.00 | 95 | 1012.1 |
| 20260507024103 | 3 | 196 | 0.0 | 0.0 | 0.00 | 0.76 | 0.00 | 94 | 1012.1 |
| 20260507024004 | 3 | 196 | 0.0 | 0.0 | 0.00 | 0.76 | 0.00 | 95 | 1012.1 |
| 20260507023801 | 3 | 196 | 0.0 | 0.0 | 0.00 | 0.76 | 0.00 | 95 | 1012.2 |
| 20260507023601 | 3 | 196 | 0.0 | 0.0 | 0.00 | 0.76 | 0.00 | 95 | 1012.1 |
| 20260507023503 | 3 | 196 | 0.0 | 0.0 | 0.00 | 0.76 | 0.00 | 95 | 1012.1 |
| 20260507022801 | 3 | 196 | 0.0 | 0.0 | 0.00 | 0.76 | 0.00 | 95 | 1012.2 |
| 20260507022703 | 3 | 196 | 0.0 | 0.0 | 0.00 | 0.76 | 0.00 | 95 | 1012.1 |
| 20260507022501 | 3 | 196 | 0.0 | 0.0 | 0.00 | 0.76 | 0.00 | 95 | 1012.2 |
| 20260507022201 | 3 | 196 | 0.0 | 1.6 | 0.00 | 0.76 | 0.00 | 94 | 1012.0 |
| 20260507022101 | 3 | 196 | 0.0 | 1.6 | 0.00 | 0.76 | 0.00 | 94 | 1012.1 |
| 20260507022004 | 3 | 196 | 0.0 | 1.6 | 0.00 | 0.76 | 0.00 | 94 | 1012.0 |
| 20260507021901 | 3 | 196 | 0.0 | 1.6 | 0.00 | 0.76 | 0.00 | 94 | 1012.0 |
| 20260507021801 | 3 | 197 | 0.0 | 1.6 | 0.00 | 0.76 | 0.00 | 95 | 1012.1 |
| 20260507021703 | 3 | 197 | 0.0 | 3.2 | 0.00 | 0.76 | 0.00 | 95 | 1012.0 |
| 20260507021603 | 3 | 196 | 1.6 | 3.2 | 0.00 | 0.76 | 0.00 | 95 | 1011.9 |
| 20260507021502 | 3 | 197 | 1.6 | 3.2 | 0.00 | 0.76 | 0.00 | 95 | 1012.0 |
| 20260507021401 | 3 | 197 | 1.6 | 3.2 | 0.00 | 0.76 | 0.00 | 95 | 1012.0 |
| 20260507021303 | 3 | 197 | 1.6 | 3.2 | 0.00 | 0.76 | 0.00 | 95 | 1011.9 |
| 20260507021004 | 3 | 197 | 1.6 | 3.2 | 0.00 | 0.76 | 0.00 | 94 | 1012.0 |
| 20260507020903 | 3 | 197 | 1.6 | 3.2 | 0.00 | 0.76 | 0.00 | 94 | 1012.0 |
| 20260507020701 | 3 | 197 | 1.6 | 3.2 | 0.00 | 0.76 | 0.00 | 94 | 1011.9 |
| 20260507020603 | 3 | 197 | 1.6 | 3.2 | 0.00 | 0.76 | 0.00 | 94 | 1012.0 |
| 20260507020501 | 3 | 197 | 0.0 | 3.2 | 0.00 | 0.76 | 0.00 | 94 | 1011.9 |
| 20260507020301 | 4 | 197 | 0.0 | 1.6 | 0.00 | 0.76 | 0.00 | 95 | 1012.0 |
| 20260507020201 | 4 | 197 | 0.0 | 1.6 | 0.00 | 0.76 | 0.00 | 95 | 1011.9 |
| 20260507020101 | 4 | 196 | 0.0 | 1.6 | 0.00 | 0.76 | 0.00 | 95 | 1012.0 |
| 20260507020009 | 4 | 196 | 0.0 | 1.6 | 0.00 | 0.76 | 0.00 | 95 | 1012.0 |
| 20260507015901 | 4 | 197 | 0.0 | 1.6 | 0.00 | 0.79 | 0.00 | 95 | 1012.0 |
| 20260507015801 | 4 | 197 | 0.0 | 1.6 | 0.00 | 0.79 | 0.00 | 95 | 1012.0 |
| 20260507015702 | 4 | 196 | 0.0 | 1.6 | 0.00 | 0.79 | 0.00 | 95 | 1012.0 |
| 20260507015501 | 4 | 197 | 0.0 | 1.6 | 0.00 | 0.79 | 0.00 | 94 | 1012.0 |
| 20260507015306 | 3 | 196 | 0.0 | 1.6 | 0.00 | 0.79 | 0.00 | 94 | 1012.0 |
| 20260507015200 | 3 | 197 | 0.0 | 1.6 | 0.00 | 0.79 | 0.00 | 94 | 1011.9 |
| 20260507015101 | 3 | 196 | 0.0 | 1.6 | 0.00 | 0.79 | 0.00 | 94 | 1011.9 |
| 20260507015002 | 3 | 197 | 0.0 | 1.6 | 0.00 | 0.79 | 0.00 | 94 | 1011.9 |
| 20260507014904 | 3 | 197 | 0.0 | 1.6 | 0.00 | 0.79 | 0.00 | 94 | 1011.8 |
| 20260507014701 | 3 | 197 | 0.0 | 1.6 | 0.00 | 0.79 | 0.00 | 94 | 1012.0 |
| 20260507014603 | 3 | 196 | 0.0 | 1.6 | 0.00 | 0.79 | 0.00 | 94 | 1011.9 |
| 20260507014501 | 3 | 196 | 0.0 | 1.6 | 0.00 | 0.79 | 0.00 | 94 | 1011.9 |
| 20260507014400 | 3 | 197 | 0.0 | 1.6 | 0.00 | 0.79 | 0.00 | 94 | 1011.8 |
| 20260507014204 | 3 | 197 | 0.0 | 1.6 | 0.00 | 0.79 | 0.00 | 94 | 1012.0 |
| 20260507014100 | 3 | 197 | 0.0 | 3.2 | 0.00 | 0.79 | 0.00 | 94 | 1012.0 |
| 20260507014001 | 4 | 197 | 0.0 | 3.2 | 0.00 | 0.79 | 0.00 | 94 | 1011.9 |
| 20260507013903 | 4 | 197 | 0.0 | 3.2 | 0.00 | 0.79 | 0.00 | 94 | 1011.9 |
| 20260507013802 | 4 | 197 | 0.0 | 3.2 | 0.00 | 0.79 | 0.00 | 94 | 1011.9 |
| 20260507013700 | 4 | 197 | 0.0 | 3.2 | 0.00 | 0.79 | 0.00 | 94 | 1011.9 |
| 20260507013601 | 4 | 197 | 0.0 | 3.2 | 0.00 | 0.79 | 0.00 | 94 | 1011.9 |
| 20260507013501 | 3 | 197 | 0.0 | 3.2 | 0.00 | 0.79 | 0.00 | 94 | 1012.0 |
| 20260507013402 | 3 | 197 | 0.0 | 3.2 | 0.00 | 0.79 | 0.00 | 94 | 1012.0 |
| 20260507013202 | 3 | 197 | 0.0 | 3.2 | 0.00 | 0.79 | 0.00 | 94 | 1012.0 |
| 20260507013101 | 3 | 196 | 0.0 | 3.2 | 0.00 | 0.79 | 0.00 | 94 | 1012.0 |
| 20260507013001 | 3 | 196 | 0.0 | 3.2 | 0.00 | 0.79 | 0.00 | 94 | 1011.9 |
| 20260507012903 | 3 | 196 | 0.0 | 3.2 | 0.00 | 0.79 | 0.00 | 94 | 1012.0 |
| 20260507012800 | 3 | 196 | 0.0 | 3.2 | 0.00 | 0.79 | 0.00 | 94 | 1012.0 |
| 20260507012702 | 3 | 196 | 0.0 | 3.2 | 0.00 | 0.79 | 0.00 | 94 | 1012.0 |
| 20260507012601 | 4 | 197 | 0.0 | 3.2 | 0.00 | 0.79 | 0.00 | 94 | 1012.1 |
| 20260507012401 | 3 | 196 | 0.0 | 3.2 | 0.00 | 0.79 | 0.00 | 94 | 1012.1 |
| 20260507012001 | 3 | 196 | 0.0 | 0.0 | 0.00 | 0.79 | 0.00 | 94 | 1012.1 |
| 20260507011903 | 3 | 196 | 0.0 | 0.0 | 0.00 | 0.79 | 0.00 | 94 | 1012.1 |
| 20260507011800 | 4 | 196 | 0.0 | 0.0 | 0.00 | 0.79 | 0.00 | 94 | 1012.2 |
| 20260507011700 | 4 | 196 | 0.0 | 0.0 | 0.00 | 0.79 | 0.00 | 94 | 1012.1 |
| 20260507011601 | 4 | 196 | 0.0 | 0.0 | 0.00 | 0.79 | 0.00 | 94 | 1012.1 |
| 20260507011504 | 4 | 196 | 0.0 | 0.0 | 0.00 | 0.79 | 0.00 | 94 | 1012.2 |
| 20260507011300 | 4 | 196 | 0.0 | 0.0 | 0.00 | 0.79 | 0.00 | 94 | 1012.1 |
| 20260507011202 | 4 | 196 | 0.0 | 0.0 | 0.00 | 0.79 | 0.00 | 94 | 1012.1 |
| 20260507011001 | 4 | 196 | 0.0 | 0.0 | 0.00 | 0.79 | 0.00 | 94 | 1012.0 |
| 20260507010901 | 4 | 196 | 0.0 | 0.0 | 0.00 | 0.79 | 0.00 | 94 | 1012.1 |
| 20260507010601 | 4 | 196 | 0.0 | 0.0 | 0.00 | 0.79 | 0.00 | 94 | 1012.0 |
| 20260507010500 | 4 | 196 | 0.0 | 0.0 | 0.00 | 0.79 | 0.00 | 94 | 1012.1 |
| 20260507010403 | 4 | 196 | 0.0 | 0.0 | 0.00 | 0.79 | 0.00 | 94 | 1012.0 |
| 20260507010300 | 4 | 196 | 0.0 | 0.0 | 0.00 | 0.79 | 0.00 | 94 | 1012.1 |
| 20260507010200 | 4 | 196 | 0.0 | 0.0 | 0.00 | 0.79 | 0.00 | 94 | 1012.0 |
| 20260507010101 | 4 | 196 | 0.0 | 0.0 | 0.00 | 0.79 | 0.00 | 94 | 1011.9 |
| 20260507005900 | 4 | 196 | 0.0 | 0.0 | 0.00 | 0.79 | 0.00 | 94 | 1012.0 |
| 20260507005802 | 4 | 196 | 0.0 | 0.0 | 0.00 | 0.79 | 0.00 | 94 | 1012.0 |
| 20260507005702 | 4 | 196 | 0.0 | 0.0 | 0.00 | 0.79 | 0.00 | 94 | 1012.0 |
| 20260507005601 | 4 | 196 | 0.0 | 0.0 | 0.00 | 0.79 | 0.00 | 94 | 1012.0 |
| 20260507005501 | 4 | 196 | 0.0 | 0.0 | 0.00 | 0.79 | 0.00 | 94 | 1012.0 |
| 20260507005403 | 4 | 196 | 0.0 | 0.0 | 0.00 | 0.79 | 0.00 | 94 | 1012.1 |
| 20260507005201 | 4 | 196 | 0.0 | 0.0 | 0.00 | 0.79 | 0.00 | 94 | 1012.0 |
| 20260507005102 | 4 | 196 | 0.0 | 0.0 | 0.00 | 0.79 | 0.00 | 94 | 1012.0 |
| 20260507005003 | 4 | 196 | 0.0 | 0.0 | 0.00 | 0.79 | 0.00 | 94 | 1012.2 |
| 20260507004800 | 4 | 196 | 0.0 | 0.0 | 0.00 | 0.79 | 0.00 | 94 | 1012.0 |
| 20260507004703 | 4 | 196 | 0.0 | 0.0 | 0.00 | 0.79 | 0.00 | 94 | 1012.1 |
| 20260507004601 | 4 | 196 | 0.0 | 0.0 | 0.00 | 0.79 | 0.00 | 94 | 1012.1 |
| 20260507004527 | 4 | 196 | 0.0 | 0.0 | 0.00 | 0.79 | 0.00 | 94 | 1012.1 |
| 20260507004418 | 4 | 196 | 0.0 | 0.0 | 0.00 | 0.79 | 0.00 | 94 | 1012.0 |
| 20260507004319 | 4 | 196 | 0.0 | 0.0 | 0.00 | 0.79 | 0.00 | 94 | 1012.1 |
| 20260507004217 | 4 | 196 | 0.0 | 0.0 | 0.00 | 0.79 | 0.00 | 94 | 1012.0 |
| 20260507004119 | 4 | 196 | 0.0 | 0.0 | 0.00 | 0.79 | 0.00 | 94 | 1012.0 |
| 20260507004041 | 4 | 196 | 0.0 | 0.0 | 0.00 | 0.79 | 0.00 | 94 | 1012.1 |
| 20260507003917 | 4 | 196 | 0.0 | 0.0 | 0.00 | 0.79 | 0.00 | 94 | 1012.1 |
| 20260507003817 | 4 | 196 | 0.0 | 0.0 | 0.00 | 0.79 | 0.00 | 94 | 1012.1 |
| 20260507003720 | 4 | 196 | 0.0 | 0.0 | 0.00 | 0.79 | 0.00 | 94 | 1012.1 |
| 20260507003618 | 4 | 196 | 0.0 | 0.0 | 0.00 | 0.79 | 0.00 | 94 | 1012.1 |
| 20260507003527 | 4 | 196 | 0.0 | 0.0 | 0.00 | 0.79 | 0.00 | 93 | 1012.0 |
| 20260507003418 | 4 | 196 | 0.0 | 0.0 | 0.00 | 0.79 | 0.00 | 93 | 1012.1 |
| 20260507003318 | 4 | 196 | 0.0 | 0.0 | 0.00 | 0.79 | 0.00 | 93 | 1012.0 |
| 20260507003217 | 4 | 197 | 0.0 | 0.0 | 0.00 | 0.79 | 0.00 | 93 | 1012.1 |
| 20260507003128 | 4 | 197 | 0.0 | 0.0 | 0.00 | 0.79 | 0.00 | 93 | 1012.1 |
| 20260507002917 | 4 | 197 | 0.0 | 0.0 | 0.00 | 0.79 | 0.00 | 93 | 1012.1 |
| 20260507002818 | 4 | 197 | 0.0 | 0.0 | 0.00 | 0.79 | 0.00 | 93 | 1012.1 |
| 20260507002720 | 4 | 197 | 0.0 | 0.0 | 0.00 | 0.79 | 0.00 | 93 | 1012.1 |
| 20260507002527 | 4 | 197 | 0.0 | 0.0 | 0.00 | 0.79 | 0.00 | 93 | 1012.1 |
| 20260507002417 | 4 | 197 | 0.0 | 0.0 | 0.00 | 0.79 | 0.00 | 93 | 1012.1 |
| 20260507002218 | 4 | 197 | 0.0 | 0.0 | 0.00 | 0.79 | 0.00 | 93 | 1012.0 |
| 20260507002119 | 4 | 197 | 0.0 | 0.0 | 0.00 | 0.79 | 0.00 | 93 | 1012.1 |
| 20260507002035 | 4 | 197 | 0.0 | 0.0 | 0.00 | 0.79 | 0.00 | 93 | 1012.1 |
| 20260507001817 | 4 | 197 | 0.0 | 0.0 | 0.00 | 0.79 | 0.00 | 93 | 1012.0 |
| 20260507001720 | 4 | 197 | 0.0 | 0.0 | 0.00 | 0.79 | 0.00 | 93 | 1012.0 |
| 20260507001617 | 4 | 197 | 0.0 | 0.0 | 0.00 | 0.79 | 0.00 | 93 | 1012.1 |
| 20260507001539 | 4 | 197 | 0.0 | 0.0 | 0.00 | 0.79 | 0.00 | 93 | 1012.0 |
| 20260507001319 | 4 | 197 | 0.0 | 0.0 | 0.00 | 0.79 | 0.00 | 93 | 1012.1 |
| 20260507001036 | 4 | 197 | 0.0 | 0.0 | 0.00 | 0.79 | 0.00 | 93 | 1012.0 |
| 20260507000917 | 5 | 197 | 0.0 | 0.0 | 0.00 | 0.79 | 0.00 | 93 | 1012.0 |
| 20260507000817 | 5 | 197 | 0.0 | 0.0 | 0.00 | 0.79 | 0.00 | 93 | 1012.1 |
| 20260507000720 | 5 | 197 | 0.0 | 0.0 | 0.00 | 0.79 | 0.00 | 93 | 1012.0 |
| 20260507000617 | 5 | 197 | 0.0 | 0.0 | 0.00 | 0.79 | 0.00 | 93 | 1012.1 |
| 20260507000527 | 5 | 197 | 0.0 | 0.0 | 0.00 | 0.79 | 0.00 | 93 | 1012.1 |
| 20260507000321 | 5 | 197 | 0.0 | 0.0 | 0.00 | 0.79 | 0.00 | 93 | 1012.1 |
| 20260507000219 | 5 | 197 | 0.0 | 0.0 | 0.00 | 0.79 | 0.00 | 93 | 1012.2 |
| 20260507000124 | 5 | 197 | 0.0 | 0.0 | 0.00 | 0.79 | 0.00 | 93 | 1012.1 |
| 20260506235917 | 5 | 196 | 0.0 | 0.0 | 0.00 | 0.79 | 0.00 | 93 | 1012.1 |
| 20260506235819 | 5 | 197 | 0.0 | 0.0 | 0.00 | 0.79 | 0.00 | 93 | 1012.1 |
| 20260506235618 | 5 | 197 | 0.0 | 0.0 | 0.00 | 0.79 | 0.00 | 93 | 1012.1 |
| 20260506235525 | 5 | 197 | 0.0 | 0.0 | 0.00 | 0.79 | 0.00 | 93 | 1012.1 |
| 20260506235420 | 5 | 197 | 0.0 | 0.0 | 0.00 | 0.79 | 0.00 | 93 | 1012.0 |
| 20260506235219 | 5 | 197 | 0.0 | 0.0 | 0.00 | 0.79 | 0.00 | 93 | 1011.9 |
| 20260506235117 | 5 | 197 | 0.0 | 0.0 | 0.00 | 0.79 | 0.00 | 93 | 1011.9 |
| 20260506235038 | 5 | 197 | 0.0 | 0.0 | 0.00 | 0.79 | 0.00 | 93 | 1012.0 |
| 20260506234917 | 5 | 197 | 0.0 | 0.0 | 0.00 | 0.79 | 0.00 | 93 | 1011.9 |
| 20260506234819 | 5 | 197 | 0.0 | 0.0 | 0.00 | 0.79 | 0.00 | 93 | 1011.9 |
| 20260506234617 | 5 | 197 | 0.0 | 0.0 | 0.00 | 0.79 | 0.00 | 93 | 1011.9 |
| 20260506234525 | 5 | 197 | 0.0 | 0.0 | 0.00 | 0.79 | 0.00 | 93 | 1011.9 |
| 20260506234420 | 5 | 197 | 0.0 | 0.0 | 0.00 | 0.79 | 0.00 | 93 | 1012.0 |
| 20260506234117 | 5 | 197 | 0.0 | 0.0 | 0.00 | 0.79 | 0.00 | 93 | 1011.9 |
| 20260506233917 | 5 | 197 | 0.0 | 0.0 | 0.00 | 0.79 | 0.00 | 93 | 1012.0 |
| 20260506233819 | 5 | 197 | 0.0 | 0.0 | 0.00 | 0.79 | 0.00 | 93 | 1011.9 |
| 20260506233718 | 5 | 197 | 0.0 | 0.0 | 0.00 | 0.79 | 0.00 | 93 | 1012.0 |
| 20260506233617 | 5 | 197 | 0.0 | 0.0 | 0.00 | 0.79 | 0.00 | 93 | 1011.8 |
| 20260506233525 | 5 | 197 | 0.0 | 0.0 | 0.00 | 0.79 | 0.00 | 93 | 1011.9 |
| 20260506233420 | 5 | 197 | 0.0 | 0.0 | 0.00 | 0.79 | 0.00 | 93 | 1011.9 |
| 20260506233317 | 5 | 197 | 0.0 | 0.0 | 0.00 | 0.79 | 0.00 | 93 | 1011.9 |
| 20260506233219 | 5 | 197 | 0.0 | 0.0 | 0.00 | 0.79 | 0.00 | 93 | 1011.8 |
| 20260506233117 | 5 | 197 | 0.0 | 0.0 | 0.00 | 0.79 | 0.00 | 92 | 1011.9 |
| 20260506233035 | 5 | 197 | 0.0 | 0.0 | 0.00 | 0.79 | 0.00 | 92 | 1011.8 |
| 20260506232919 | 5 | 197 | 0.0 | 0.0 | 0.00 | 0.79 | 0.00 | 92 | 1011.8 |
| 20260506232819 | 5 | 197 | 0.0 | 0.0 | 0.00 | 0.79 | 0.00 | 92 | 1011.7 |
| 20260506232719 | 5 | 197 | 0.0 | 0.0 | 0.00 | 0.79 | 0.00 | 92 | 1011.8 |
| 20260506232618 | 5 | 197 | 0.0 | 0.0 | 0.00 | 0.79 | 0.00 | 92 | 1011.8 |
| 20260506232525 | 5 | 197 | 0.0 | 0.0 | 0.00 | 0.79 | 0.00 | 92 | 1011.8 |
| 20260506232420 | 5 | 197 | 0.0 | 0.0 | 0.00 | 0.79 | 0.00 | 92 | 1011.8 |
| 20260506232317 | 5 | 197 | 0.0 | 0.0 | 0.00 | 0.79 | 0.00 | 92 | 1011.8 |
| 20260506232035 | 5 | 197 | 0.0 | 0.0 | 0.00 | 0.79 | 0.00 | 92 | 1011.8 |
| 20260506231917 | 5 | 197 | 0.0 | 0.0 | 0.00 | 0.79 | 0.00 | 92 | 1011.8 |
| 20260506231819 | 5 | 197 | 0.0 | 0.0 | 0.00 | 0.79 | 0.00 | 92 | 1011.7 |
| 20260506231718 | 5 | 197 | 0.0 | 0.0 | 0.00 | 0.79 | 0.00 | 92 | 1011.7 |
| 20260506231617 | 5 | 197 | 0.0 | 0.0 | 0.00 | 0.79 | 0.00 | 92 | 1011.7 |
| 20260506231420 | 5 | 197 | 0.0 | 0.0 | 0.00 | 0.79 | 0.00 | 92 | 1011.6 |
| 20260506231319 | 5 | 197 | 0.0 | 0.0 | 0.00 | 0.79 | 0.00 | 92 | 1011.7 |
| 20260506231218 | 5 | 197 | 0.0 | 0.0 | 0.00 | 0.79 | 0.00 | 92 | 1011.5 |
| 20260506231117 | 5 | 197 | 0.0 | 0.0 | 0.00 | 0.79 | 0.00 | 92 | 1011.6 |
| 20260506231035 | 5 | 197 | 0.0 | 0.0 | 0.00 | 0.79 | 0.00 | 92 | 1011.7 |
| 20260506230919 | 5 | 197 | 0.0 | 0.0 | 0.00 | 0.79 | 0.00 | 92 | 1011.5 |
| 20260506230817 | 5 | 197 | 0.0 | 0.0 | 0.00 | 0.79 | 0.00 | 92 | 1011.5 |
| 20260506230719 | 5 | 197 | 0.0 | 0.0 | 0.00 | 0.79 | 0.00 | 92 | 1011.5 |
| 20260506230617 | 5 | 197 | 0.0 | 0.0 | 0.00 | 0.79 | 0.00 | 93 | 1011.5 |
| 20260506230317 | 5 | 197 | 0.0 | 0.0 | 0.00 | 0.79 | 0.00 | 92 | 1011.4 |
| 20260506230218 | 5 | 197 | 0.0 | 0.0 | 0.00 | 0.79 | 0.00 | 92 | 1011.4 |
| 20260506230126 | 5 | 197 | 0.0 | 0.0 | 0.00 | 0.79 | 0.00 | 92 | 1011.5 |
| 20260506225920 | 5 | 197 | 1.6 | 6.4 | 0.00 | 0.79 | 0.00 | 92 | 1011.5 |
| 20260506225823 | 5 | 197 | 1.6 | 6.4 | 0.00 | 0.79 | 0.00 | 92 | 1011.5 |
| 20260506225720 | 5 | 197 | 1.6 | 6.4 | 0.00 | 0.79 | 0.00 | 92 | 1011.4 |
| 20260506225528 | 5 | 197 | 1.6 | 6.4 | 0.00 | 0.79 | 0.00 | 92 | 1011.4 |
| 20260506225421 | 5 | 197 | 1.6 | 6.4 | 0.00 | 0.79 | 0.00 | 92 | 1011.4 |
| 20260506225320 | 5 | 197 | 1.6 | 6.4 | 0.00 | 0.79 | 0.00 | 92 | 1011.4 |
| 20260506225222 | 5 | 196 | 1.6 | 6.4 | 0.00 | 0.79 | 0.00 | 92 | 1011.3 |
| 20260506225122 | 5 | 196 | 1.6 | 6.4 | 0.00 | 0.79 | 0.00 | 92 | 1011.4 |
| 20260506224921 | 5 | 197 | 0.0 | 4.8 | 0.00 | 0.79 | 0.00 | 92 | 1011.4 |
| 20260506224823 | 5 | 197 | 0.0 | 3.2 | 0.00 | 0.79 | 0.00 | 92 | 1011.3 |
| 20260506224620 | 5 | 197 | 0.0 | 3.2 | 0.00 | 0.79 | 0.00 | 91 | 1011.4 |
| 20260506224528 | 5 | 197 | 0.0 | 3.2 | 0.00 | 0.79 | 0.00 | 91 | 1011.4 |
| 20260506224423 | 5 | 197 | 0.0 | 3.2 | 0.00 | 0.79 | 0.00 | 92 | 1011.3 |
| 20260506224220 | 5 | 197 | 1.6 | 3.2 | 0.00 | 0.79 | 0.00 | 92 | 1011.4 |
| 20260506224121 | 5 | 197 | 1.6 | 4.8 | 0.00 | 0.79 | 0.00 | 92 | 1011.5 |
| 20260506224037 | 5 | 197 | 1.6 | 4.8 | 0.00 | 0.79 | 0.00 | 92 | 1011.4 |
| 20260506223922 | 5 | 197 | 1.6 | 4.8 | 0.00 | 0.79 | 0.00 | 92 | 1011.3 |
| 20260506223720 | 5 | 197 | 1.6 | 4.8 | 0.00 | 0.79 | 0.00 | 92 | 1011.5 |
| 20260506223621 | 5 | 197 | 1.6 | 4.8 | 0.00 | 0.79 | 0.00 | 92 | 1011.3 |
| 20260506223530 | 5 | 197 | 1.6 | 4.8 | 0.00 | 0.79 | 0.00 | 92 | 1011.3 |
| 20260506223420 | 5 | 197 | 1.6 | 4.8 | 0.00 | 0.79 | 0.00 | 92 | 1011.4 |
| 20260506223037 | 5 | 198 | 0.0 | 1.6 | 0.00 | 0.79 | 0.00 | 91 | 1011.3 |
| 20260506222922 | 5 | 198 | 0.0 | 1.6 | 0.00 | 0.79 | 0.00 | 91 | 1011.3 |
| 20260506222821 | 5 | 198 | 1.6 | 3.2 | 0.00 | 0.79 | 0.00 | 91 | 1011.3 |
| 20260506222720 | 5 | 198 | 1.6 | 4.8 | 0.00 | 0.79 | 0.00 | 91 | 1011.2 |
| 20260506222620 | 5 | 198 | 1.6 | 4.8 | 0.00 | 0.79 | 0.00 | 91 | 1011.4 |
| 20260506222530 | 5 | 198 | 1.6 | 4.8 | 0.00 | 0.79 | 0.00 | 91 | 1011.4 |
| 20260506222421 | 5 | 198 | 1.6 | 4.8 | 0.00 | 0.79 | 0.00 | 91 | 1011.3 |
| 20260506222322 | 5 | 198 | 1.6 | 4.8 | 0.00 | 0.79 | 0.00 | 91 | 1011.3 |
| 20260506222220 | 5 | 198 | 1.6 | 4.8 | 0.00 | 0.79 | 0.00 | 91 | 1011.3 |
| 20260506222121 | 5 | 198 | 1.6 | 4.8 | 0.00 | 0.79 | 0.00 | 91 | 1011.3 |
| 20260506222040 | 5 | 198 | 1.6 | 4.8 | 0.00 | 0.79 | 0.00 | 91 | 1011.2 |
| 20260506221922 | 5 | 198 | 1.6 | 4.8 | 0.00 | 0.79 | 0.00 | 91 | 1011.3 |
| 20260506221821 | 6 | 198 | 1.6 | 4.8 | 0.00 | 0.79 | 0.00 | 91 | 1011.3 |
| 20260506221721 | 6 | 198 | 0.0 | 4.8 | 0.00 | 0.79 | 0.00 | 91 | 1011.3 |
| 20260506221531 | 6 | 198 | 0.0 | 4.8 | 0.00 | 0.79 | 0.00 | 91 | 1011.2 |
| 20260506221420 | 6 | 198 | 0.0 | 4.8 | 0.00 | 0.79 | 0.00 | 91 | 1011.4 |
| 20260506221220 | 6 | 198 | 0.0 | 4.8 | 0.00 | 0.79 | 0.00 | 91 | 1011.3 |
| 20260506221121 | 6 | 198 | 0.0 | 3.2 | 0.00 | 0.79 | 0.00 | 91 | 1011.5 |
| 20260506221037 | 6 | 198 | 0.0 | 1.6 | 0.00 | 0.79 | 0.00 | 91 | 1011.3 |
| 20260506220922 | 6 | 198 | 0.0 | 1.6 | 0.00 | 0.79 | 0.00 | 91 | 1011.4 |
| 20260506220822 | 6 | 198 | 0.0 | 1.6 | 0.00 | 0.79 | 0.00 | 91 | 1011.3 |
| 20260506220720 | 6 | 198 | 0.0 | 1.6 | 0.00 | 0.79 | 0.00 | 91 | 1011.3 |
| 20260506220532 | 6 | 198 | 0.0 | 3.2 | 0.00 | 0.79 | 0.00 | 91 | 1011.3 |
| 20260506220422 | 6 | 198 | 0.0 | 3.2 | 0.00 | 0.79 | 0.00 | 91 | 1011.3 |
| 20260506220222 | 6 | 198 | 0.0 | 3.2 | 0.00 | 0.79 | 0.00 | 91 | 1011.4 |
| 20260506220044 | 6 | 198 | 1.6 | 3.2 | 0.00 | 0.79 | 0.00 | 90 | 1011.3 |
| 20260506215921 | 6 | 198 | 1.6 | 3.2 | 0.00 | 0.79 | 0.79 | 90 | 1011.3 |
| 20260506215822 | 6 | 198 | 0.0 | 3.2 | 0.00 | 0.79 | 0.79 | 90 | 1011.4 |
| 20260506215720 | 6 | 198 | 0.0 | 3.2 | 0.00 | 0.79 | 0.79 | 90 | 1011.3 |
| 20260506215622 | 6 | 198 | 0.0 | 1.6 | 0.00 | 0.79 | 0.79 | 90 | 1011.3 |
| 20260506215529 | 6 | 198 | 0.0 | 1.6 | 0.00 | 0.79 | 0.79 | 91 | 1011.2 |
| 20260506215421 | 6 | 198 | 0.0 | 1.6 | 0.00 | 0.79 | 0.79 | 91 | 1011.1 |
| 20260506215320 | 6 | 198 | 0.0 | 3.2 | 0.00 | 0.79 | 0.79 | 91 | 1011.3 |
| 20260506215120 | 6 | 198 | 1.6 | 4.8 | 0.00 | 0.79 | 0.79 | 91 | 1011.3 |
| 20260506215042 | 6 | 198 | 0.0 | 4.8 | 0.00 | 0.79 | 0.79 | 91 | 1011.2 |
| 20260506214921 | 6 | 198 | 1.6 | 4.8 | 0.00 | 0.79 | 0.79 | 91 | 1011.3 |
| 20260506214720 | 6 | 198 | 1.6 | 6.4 | 0.00 | 0.79 | 0.79 | 91 | 1011.2 |
| 20260506214622 | 6 | 198 | 1.6 | 6.4 | 0.00 | 0.79 | 0.79 | 90 | 1011.2 |
| 20260506214529 | 6 | 198 | 3.2 | 6.4 | 0.00 | 0.79 | 0.79 | 90 | 1011.2 |
| 20260506214421 | 6 | 198 | 3.2 | 6.4 | 0.00 | 0.79 | 0.79 | 90 | 1011.3 |
| 20260506214320 | 6 | 198 | 3.2 | 6.4 | 0.00 | 0.79 | 0.79 | 90 | 1011.2 |
| 20260506214223 | 6 | 198 | 3.2 | 6.4 | 0.00 | 0.79 | 0.79 | 90 | 1011.2 |
| 20260506214120 | 6 | 198 | 3.2 | 6.4 | 0.00 | 0.79 | 0.79 | 90 | 1011.2 |
| 20260506214039 | 6 | 198 | 3.2 | 6.4 | 0.00 | 0.79 | 0.79 | 90 | 1011.3 |
| 20260506213920 | 6 | 198 | 3.2 | 6.4 | 0.00 | 0.79 | 0.79 | 90 | 1011.2 |
| 20260506213822 | 6 | 199 | 1.6 | 6.4 | 0.00 | 0.79 | 0.79 | 90 | 1011.3 |
| 20260506213622 | 6 | 199 | 1.6 | 4.8 | 0.00 | 0.79 | 0.79 | 90 | 1011.2 |
| 20260506213529 | 6 | 199 | 1.6 | 4.8 | 0.00 | 0.79 | 0.79 | 90 | 1011.2 |
| 20260506213421 | 6 | 198 | 1.6 | 6.4 | 0.00 | 0.79 | 0.79 | 89 | 1011.1 |
| 20260506213321 | 6 | 198 | 1.6 | 6.4 | 0.00 | 0.79 | 0.79 | 89 | 1011.2 |
| 20260506213120 | 6 | 198 | 1.6 | 6.4 | 0.00 | 0.79 | 0.79 | 89 | 1011.2 |
| 20260506213039 | 6 | 198 | 1.6 | 6.4 | 0.00 | 0.79 | 0.79 | 89 | 1011.3 |
| 20260506212920 | 6 | 198 | 1.6 | 6.4 | 0.00 | 0.79 | 0.79 | 89 | 1011.2 |
| 20260506212822 | 6 | 198 | 1.6 | 6.4 | 0.00 | 0.79 | 0.79 | 89 | 1011.2 |
| 20260506212622 | 6 | 198 | 1.6 | 6.4 | 0.00 | 0.79 | 0.79 | 89 | 1011.2 |
| 20260506212530 | 6 | 198 | 1.6 | 4.8 | 0.00 | 0.79 | 0.79 | 89 | 1011.2 |
| 20260506212420 | 6 | 198 | 1.6 | 4.8 | 0.00 | 0.79 | 0.79 | 89 | 1011.2 |
| 20260506212320 | 7 | 198 | 1.6 | 4.8 | 0.00 | 0.79 | 0.79 | 89 | 1011.3 |
| 20260506212222 | 7 | 199 | 1.6 | 4.8 | 0.00 | 0.79 | 0.79 | 89 | 1011.2 |
| 20260506212121 | 7 | 199 | 1.6 | 4.8 | 0.00 | 0.79 | 0.79 | 89 | 1011.2 |
| 20260506212039 | 7 | 199 | 1.6 | 4.8 | 0.00 | 0.79 | 0.79 | 89 | 1011.1 |
| 20260506211822 | 7 | 199 | 1.6 | 4.8 | 0.00 | 0.79 | 0.79 | 88 | 1011.1 |
| 20260506211622 | 7 | 203 | 0.0 | 1.6 | 0.00 | 0.79 | 0.79 | 88 | 1011.1 |
| 20260506211530 | 7 | 203 | 0.0 | 1.6 | 0.00 | 0.79 | 0.79 | 88 | 1011.0 |
| 20260506211420 | 7 | 203 | 0.0 | 1.6 | 0.00 | 0.79 | 0.79 | 88 | 1011.1 |
| 20260506211321 | 7 | 203 | 0.0 | 3.2 | 0.00 | 0.79 | 0.79 | 88 | 1011.1 |
| 20260506211120 | 7 | 203 | 0.0 | 3.2 | 0.00 | 0.79 | 0.79 | 88 | 1011.0 |
| 20260506211042 | 7 | 203 | 0.0 | 3.2 | 0.00 | 0.79 | 0.79 | 88 | 1011.1 |
| 20260506210920 | 7 | 203 | 0.0 | 3.2 | 0.00 | 0.79 | 0.79 | 88 | 1011.0 |
| 20260506210822 | 7 | 203 | 0.0 | 3.2 | 0.00 | 0.79 | 0.79 | 88 | 1011.1 |
| 20260506210721 | 7 | 203 | 0.0 | 3.2 | 0.00 | 0.79 | 0.79 | 88 | 1011.1 |
| 20260506210622 | 7 | 203 | 0.0 | 3.2 | 0.00 | 0.79 | 0.79 | 88 | 1011.2 |
| 20260506210530 | 7 | 203 | 0.0 | 3.2 | 0.00 | 0.79 | 0.79 | 87 | 1011.1 |
| 20260506210421 | 7 | 203 | 0.0 | 3.2 | 0.00 | 0.79 | 0.79 | 87 | 1011.2 |
| 20260506210320 | 7 | 203 | 0.0 | 3.2 | 0.00 | 0.79 | 0.79 | 87 | 1011.1 |
| 20260506210223 | 7 | 203 | 0.0 | 3.2 | 0.00 | 0.79 | 0.79 | 87 | 1011.1 |
| 20260506210129 | 7 | 203 | 0.0 | 3.2 | 0.00 | 0.79 | 0.79 | 87 | 1011.1 |
| 20260506205923 | 7 | 203 | 0.0 | 3.2 | 0.00 | 0.79 | 0.79 | 87 | 1011.1 |
| 20260506205819 | 7 | 203 | 0.0 | 3.2 | 0.00 | 0.79 | 0.79 | 87 | 1011.1 |
| 20260506205722 | 7 | 203 | 0.0 | 3.2 | 0.00 | 0.79 | 0.79 | 87 | 1011.2 |
| 20260506205619 | 7 | 203 | 0.0 | 1.6 | 0.00 | 0.79 | 0.79 | 87 | 1011.1 |
| 20260506205529 | 7 | 203 | 0.0 | 1.6 | 0.00 | 0.79 | 0.79 | 87 | 1011.1 |
| 20260506205419 | 8 | 203 | 0.0 | 1.6 | 0.00 | 0.79 | 0.79 | 87 | 1011.0 |